GFSNE_sfc_wetblb_000.txt.gz
Wetbulb
62.54 62.62 61.45 60.88 59.52 59.02 57.66 57.57 54.60 49.31 50.10 54.10 54.75 58.34 59.84 60.75 63.59 65.56 67.97 69.76 68.63 68.09 67.13 66.77 67.37 68.99 70.68 71.45 71.54 72.49 72.85 73.57 73.48 73.18 73.19 73.93 75.00 75.90
62.36 62.55 61.50 60.21 59.23 58.76 57.74 56.28 55.42 53.99 51.17 53.61 54.61 56.87 58.27 59.80 61.93 64.18 66.45 68.77 68.98 67.73 66.79 66.19 66.39 67.80 68.88 69.97 70.27 70.57 71.24 71.77 71.96 71.90 71.78 71.99 72.39 73.52
61.95 61.72 61.45 60.38 58.16 58.48 57.71 56.28 55.12 54.77 54.15 54.21 54.38 56.51 56.37 56.92 58.61 60.97 64.19 66.51 68.47 67.38 66.77 65.97 65.29 66.14 67.04 68.16 68.56 68.93 69.84 70.08 70.14 70.35 70.95 71.29 71.23 71.50
61.36 60.61 60.66 61.65 58.20 58.10 57.14 56.22 55.40 55.18 55.60 53.66 55.01 55.38 55.81 56.86 57.78 59.02 61.35 65.03 67.10 68.11 66.61 65.41 64.95 64.68 65.21 65.90 66.37 66.82 67.11 67.46 67.75 68.00 68.99 69.55 70.24 70.24
61.65 60.22 59.88 59.77 58.41 57.46 57.18 56.88 56.62 57.02 55.80 56.04 55.85 56.16 55.96 56.23 57.23 58.88 59.59 61.18 65.45 67.58 65.88 65.20 65.32 64.76 63.90 63.32 63.51 63.40 62.84 63.43 63.83 64.16 65.04 66.16 67.44 68.71
60.86 60.60 60.72 59.49 59.07 57.91 57.26 57.44 56.60 55.14 54.75 55.78 55.64 55.19 54.91 56.18 57.06 56.76 56.85 59.45 60.97 65.96 67.94 67.03 66.20 65.70 64.26 62.46 62.69 63.10 61.07 60.37 60.49 60.81 61.55 62.12 63.75 65.36
61.01 60.98 60.70 61.23 62.46 60.27 58.75 57.80 56.28 55.22 56.28 56.52 55.01 54.38 54.00 54.29 54.80 56.61 56.88 57.77 58.99 61.47 64.63 66.96 66.90 66.34 65.83 63.70 64.99 64.61 61.90 60.82 59.53 59.31 59.30 59.30 59.98 61.28
58.32 58.59 59.06 62.17 61.93 62.71 62.00 61.89 59.88 55.70 55.52 55.30 54.46 53.95 54.42 55.58 56.22 56.05 56.24 55.54 54.79 60.32 63.31 65.74 66.36 65.01 65.71 66.46 65.60 64.04 62.11 60.94 59.94 59.17 58.49 58.05 58.13 58.84
56.67 57.20 58.51 60.74 61.35 59.56 59.97 60.43 59.85 60.23 60.02 56.14 54.98 55.33 55.41 56.27 56.24 55.84 56.08 55.88 55.78 58.72 60.58 61.87 67.06 66.19 67.02 67.71 64.05 62.56 61.51 60.85 59.83 59.20 58.69 57.75 57.13 56.78
57.65 57.71 56.92 57.71 57.95 57.92 56.42 54.46 54.42 55.35 55.77 56.41 56.04 56.89 57.33 57.25 56.93 56.88 56.60 56.84 57.37 58.81 60.89 59.53 65.34 66.60 67.98 68.70 64.34 62.99 61.25 59.95 59.36 58.61 57.83 56.40 54.97 53.88
55.05 56.60 57.16 56.52 56.83 55.99 53.72 52.95 52.95 54.01 57.19 57.12 56.98 56.99 57.07 57.11 57.59 57.26 56.32 55.36 54.32 55.78 59.75 61.16 63.95 65.33 66.72 67.52 68.09 63.15 60.32 59.07 58.16 58.00 57.47 55.86 53.52 52.23
55.09 55.79 56.61 54.60 53.18 52.74 52.02 51.67 53.38 54.62 54.33 54.59 55.52 56.19 57.02 57.02 57.98 58.16 56.94 55.22 55.30 55.90 59.52 62.24 64.63 65.46 62.23 65.95 68.07 64.84 63.42 57.63 56.50 55.80 55.68 54.59 51.51 57.57
52.97 52.12 53.18 52.28 50.13 49.84 50.11 49.77 51.67 52.84 54.06 54.60 54.82 55.25 56.16 56.26 56.66 57.78 57.99 58.13 56.32 57.65 62.92 64.43 64.52 64.43 64.00 61.65 63.44 62.89 62.85 58.39 58.88 55.82 53.32 51.71 50.96 57.97
51.50 51.68 50.88 49.80 49.21 49.84 50.10 51.01 51.12 52.81 53.28 53.21 53.21 53.31 54.38 54.98 55.50 56.80 58.46 59.61 59.32 58.46 62.74 64.46 64.03 64.86 63.32 62.33 61.92 63.27 62.00 61.80 61.17 59.72 58.43 52.57 51.51 53.70
50.84 50.07 50.63 48.31 49.21 50.58 51.60 52.10 52.49 52.41 51.95 50.66 50.58 51.46 53.37 54.60 55.28 56.68 58.21 58.93 60.18 60.05 61.60 62.27 65.00 64.17 64.41 62.64 61.92 63.80 62.07 61.96 63.32 62.03 61.15 58.23 57.99 57.59
48.65 46.10 50.10 51.43 51.08 50.76 49.71 50.14 50.89 51.34 50.83 50.19 50.77 52.11 53.29 53.28 53.80 56.08 56.04 56.38 58.95 59.05 60.84 62.17 65.40 64.88 62.96 62.48 62.35 61.75 63.59 62.07 62.98 63.12 62.91 62.41 62.62 62.17
44.54 49.11 49.80 49.69 48.79 45.87 45.57 47.12 49.15 48.43 47.14 48.65 50.46 50.21 50.61 51.26 52.75 54.48 55.78 55.78 55.00 54.92 57.31 63.35 63.52 60.48 58.57 61.57 60.49 60.62 62.36 64.59 64.72 64.20 62.96 61.69 62.23 62.81
46.22 45.49 45.11 44.52 43.62 42.59 41.68 42.72 43.98 45.74 44.82 47.12 48.97 49.75 49.59 50.03 50.90 53.24 54.24 54.36 54.13 55.02 55.64 56.44 59.90 59.74 58.88 57.21 57.04 56.16 62.12 61.49 65.03 65.20 64.54 62.89 62.57 63.01
43.36 41.39 40.28 39.29 38.99 38.73 38.71 39.08 40.01 43.14 43.65 45.70 47.25 48.23 49.26 49.59 49.87 51.09 51.49 52.21 52.98 55.00 54.64 56.32 55.62 59.74 59.54 55.41 56.48 53.99 56.54 61.77 64.59 64.66 65.06 64.72 64.17 64.35
39.26 37.92 38.12 36.49 35.87 35.92 36.69 37.32 40.00 41.50 43.28 42.71 44.37 44.39 44.73 48.81 48.13 48.24 49.19 49.42 50.36 53.09 54.02 55.08 55.12 54.90 56.68 54.45 54.19 56.18 49.88 56.66 57.63 63.14 65.08 65.02 61.39 59.56
37.54 36.71 37.01 36.43 35.73 35.83 36.36 37.34 37.71 38.30 40.68 40.34 40.93 41.97 42.31 44.76 46.85 47.32 47.70 47.25 48.31 50.48 53.87 54.33 55.56 55.70 57.35 57.19 55.40 55.80 57.75 52.23 52.84 54.71 61.93 62.94 62.17 61.98
38.95 38.50 38.08 36.93 36.66 36.92 34.81 33.65 35.97 36.67 37.01 37.73 38.50 39.26 40.68 41.11 42.64 45.37 46.46 46.80 47.14 48.84 51.88 56.32 57.27 56.06 55.10 54.30 53.45 54.37 55.80 57.44 56.12 54.50 54.06 53.91 59.60 59.38
40.07 38.75 36.09 36.78 34.63 32.01 30.59 31.46 32.96 34.45 34.45 34.88 36.08 37.50 39.05 38.72 40.06 42.05 43.82 46.11 46.48 47.84 49.59 51.25 53.76 55.04 55.26 54.25 53.42 54.23 54.38 55.68 56.18 55.70 55.70 54.51 54.27 53.43

GFSNE_sfc_wetblb_003.txt.gz
Wetbulb
61.66 61.65 61.30 60.32 58.78 58.36 57.32 56.23 51.49 46.60 47.56 51.45 53.56 55.56 56.08 57.19 59.52 60.31 60.29 63.09 64.61 66.14 67.35 67.56 67.71 68.07 68.71 70.25 71.30 71.63 72.26 73.28 73.29 73.34 73.19 73.83 74.52 75.19
61.81 61.63 61.71 60.62 58.71 58.12 57.10 55.65 54.31 51.43 50.29 52.05 53.02 54.20 56.06 57.75 59.64 59.48 59.26 62.41 63.64 64.21 65.86 66.77 67.13 67.24 67.70 67.99 68.78 69.90 70.32 71.07 71.65 71.93 71.80 71.91 72.41 73.13
61.38 61.44 61.55 60.50 58.60 57.66 57.24 55.91 54.23 53.38 53.66 52.94 54.22 55.54 55.51 56.33 57.63 58.07 58.91 59.21 60.72 63.33 64.35 66.08 66.21 66.06 66.43 66.73 67.22 68.12 68.98 69.21 69.80 70.60 71.04 70.96 71.02 71.58
60.98 60.58 60.73 61.43 58.77 57.33 56.70 55.95 55.17 54.53 53.64 53.32 54.07 55.40 54.88 57.39 57.29 56.51 57.52 59.61 59.66 62.00 62.72 63.62 65.63 65.24 64.40 64.25 64.91 65.46 66.05 66.75 67.20 67.94 69.08 69.64 70.11 70.25
61.35 60.17 59.87 58.75 58.15 57.22 56.48 56.39 56.27 56.84 54.97 54.90 55.26 57.79 56.96 56.95 56.16 56.42 56.91 57.73 59.26 62.20 62.35 63.07 64.21 64.75 63.89 62.54 62.21 62.01 62.20 62.67 63.27 63.91 64.76 66.27 67.71 68.90
61.07 59.91 59.39 59.02 58.84 57.97 57.30 56.91 56.86 55.63 54.93 54.12 56.02 55.97 55.51 55.88 55.63 54.36 54.22 56.70 56.57 59.27 61.42 61.80 63.05 65.08 64.94 63.09 61.95 61.93 60.27 59.73 60.14 60.70 61.41 62.39 63.91 65.62
59.87 59.58 59.80 60.84 62.87 60.57 58.18 57.19 55.85 55.63 55.05 54.85 55.28 54.69 53.94 53.22 52.97 54.67 54.59 55.66 55.92 57.79 57.77 59.26 60.88 63.79 67.41 64.62 65.59 64.63 61.86 60.13 59.13 59.01 59.07 59.03 60.11 61.50
56.99 56.29 56.81 60.09 60.06 61.80 62.33 62.25 59.50 55.61 54.65 54.24 54.54 53.68 53.49 53.34 55.23 54.82 54.35 53.73 52.41 57.84 56.88 58.26 62.30 63.51 66.85 67.32 65.17 63.61 61.83 60.65 59.68 59.24 58.74 57.74 58.30 59.03
54.51 55.20 56.61 58.93 59.24 57.50 59.06 59.88 59.77 60.20 60.31 56.33 53.57 53.68 53.12 54.53 55.54 54.49 54.31 54.15 53.74 56.49 57.26 55.87 58.36 59.50 64.05 67.17 63.71 62.39 61.40 60.52 59.66 59.19 58.74 57.82 57.30 57.24
55.85 56.17 54.59 54.55 56.00 56.61 55.82 53.97 53.42 53.36 54.09 55.06 54.57 54.90 55.30 55.67 56.01 55.75 55.24 55.30 56.06 57.03 57.65 54.65 57.81 58.56 63.07 68.02 64.09 62.86 61.12 59.83 59.04 58.36 57.69 56.44 55.04 54.16
54.06 53.96 55.14 54.67 55.89 56.26 52.95 51.75 51.19 52.24 55.79 56.65 56.82 56.63 56.51 56.74 57.33 56.29 54.36 53.46 52.68 53.88 57.64 56.25 56.83 57.13 61.30 65.61 68.19 62.96 60.99 58.81 57.67 57.43 57.07 55.89 53.61 52.67
53.43 53.87 54.74 54.25 53.64 52.43 50.70 49.30 51.24 50.87 51.90 52.80 54.02 54.93 56.01 56.01 57.59 56.99 55.49 52.84 52.80 52.70 56.86 55.64 56.28 58.79 59.66 65.60 67.83 65.99 63.39 57.72 55.97 55.61 55.83 54.68 51.60 57.26
52.27 50.73 51.53 53.08 50.24 50.05 49.43 48.87 49.10 50.29 51.16 52.38 52.97 53.09 54.18 54.67 55.60 56.11 55.96 54.83 53.34 54.53 58.13 58.09 56.92 59.19 61.44 60.75 65.47 66.55 64.11 57.72 58.93 55.00 52.51 51.60 50.86 57.92
50.20 50.23 49.89 50.10 48.74 49.43 50.26 50.93 50.75 51.67 50.04 51.62 50.81 50.89 51.47 52.67 54.14 54.96 55.70 56.40 58.62 58.04 59.98 61.46 62.25 61.40 63.34 63.07 62.37 62.27 61.89 61.87 61.04 58.16 57.04 51.94 51.22 53.41
49.82 49.74 49.54 47.84 47.72 49.73 51.27 51.58 50.65 47.48 48.21 48.32 49.12 50.50 51.63 52.79 53.55 54.58 55.54 56.47 58.16 60.24 60.41 60.28 60.13 61.36 64.08 62.36 62.43 62.25 61.32 61.18 61.92 59.77 57.78 55.39 54.85 56.76
47.84 45.77 48.59 50.07 50.88 50.39 47.60 46.89 46.49 46.62 46.62 46.02 47.95 50.24 51.05 51.41 51.82 53.55 53.41 53.99 55.45 56.39 59.65 60.64 60.21 60.83 61.37 63.48 62.98 62.75 62.93 60.40 62.01 61.62 60.45 59.21 59.35 59.63
43.55 48.80 50.06 46.89 45.27 43.55 42.24 42.74 43.60 43.87 43.28 43.80 45.47 47.03 48.89 49.73 50.46 52.14 52.99 52.68 53.32 54.23 55.13 57.88 60.47 59.01 58.57 62.39 61.71 62.17 62.93 61.98 61.68 61.66 61.74 60.52 61.20 61.59
47.20 47.80 43.89 42.11 40.50 39.16 38.14 38.52 39.32 41.72 41.74 42.39 43.64 45.98 45.86 46.82 48.66 50.14 51.08 50.93 51.71 54.23 54.81 55.67 56.90 57.50 57.36 56.88 58.16 57.90 61.89 63.52 63.43 62.58 62.35 61.36 61.04 62.36
45.53 42.51 39.28 37.37 36.76 36.35 35.98 35.90 36.47 38.40 39.42 40.74 41.40 42.38 43.47 44.19 47.79 47.86 48.73 49.29 49.80 52.50 55.07 55.97 55.15 54.81 57.82 54.06 55.51 53.04 56.29 61.34 63.86 63.25 63.91 63.59 62.62 63.30
38.66 37.22 35.19 34.43 33.67 33.83 34.44 34.88 35.82 36.82 38.07 38.53 39.35 40.06 40.71 41.84 44.51 45.59 46.98 47.57 48.26 51.22 54.31 54.63 54.45 54.23 54.45 53.88 53.38 53.96 49.37 57.16 58.99 63.29 63.63 64.68 62.21 58.50
36.51 34.98 34.86 34.67 34.73 34.97 34.13 33.48 34.55 35.58 36.34 35.76 37.19 37.93 38.71 39.45 40.50 43.41 45.04 46.20 47.48 50.03 51.82 53.68 55.39 55.55 56.45 56.68 54.07 54.79 56.49 51.20 52.49 56.37 60.24 62.21 61.48 61.71
37.23 36.90 36.83 36.24 35.80 33.58 30.66 30.61 33.34 33.68 33.28 33.89 34.87 35.98 37.53 38.19 38.83 39.86 41.84 44.35 45.84 48.42 50.25 52.90 54.05 54.41 54.69 52.66 51.68 53.08 55.15 56.86 55.33 54.13 53.46 53.84 59.33 59.85
38.15 36.49 34.73 33.63 30.31 29.31 29.49 30.58 31.39 31.55 31.72 32.26 33.38 34.74 36.34 36.45 37.95 38.41 39.87 42.67 43.95 46.30 47.68 48.67 50.49 51.45 50.55 51.17 50.85 51.33 52.13 53.77 54.93 54.69 55.43 53.79 54.01 53.26

GFSNE_sfc_wetblb_006.txt.gz
Wetbulb
65.10 64.46 63.79 64.15 63.12 62.75 61.98 60.62 57.12 52.99 52.58 56.06 57.43 60.23 60.29 60.46 61.18 62.50 62.43 62.04 62.90 63.00 62.83 63.38 64.13 65.98 68.28 69.42 69.66 70.50 71.73 72.13 72.91 73.01 73.38 73.87 74.56 75.28
64.26 64.19 64.36 64.59 63.49 62.00 60.72 60.54 58.67 56.65 54.15 56.07 57.62 58.61 59.92 60.37 61.44 62.28 61.59 61.77 61.70 61.81 62.11 62.65 63.51 64.10 65.85 67.48 68.04 68.31 69.07 70.18 70.98 71.56 71.94 72.08 72.54 73.19
64.43 64.10 64.25 64.56 63.38 61.82 60.93 60.01 58.76 57.33 55.28 58.11 57.70 60.02 59.90 60.79 61.04 61.42 61.13 60.77 60.87 61.38 61.84 61.98 61.98 62.42 63.36 65.36 66.59 66.97 67.34 67.82 68.39 69.49 71.06 71.25 71.53 71.88
64.26 63.95 63.88 63.64 63.16 62.59 60.64 60.56 60.00 59.14 57.59 57.07 59.54 58.68 59.46 61.22 61.09 60.29 60.03 60.21 60.64 61.03 61.00 61.05 61.33 61.63 62.01 62.42 64.06 64.82 64.91 65.38 66.21 67.28 68.43 69.93 70.55 70.57
63.95 63.53 63.31 62.54 62.07 61.55 60.93 60.48 60.56 60.43 58.71 57.59 58.10 60.11 59.58 60.72 59.77 60.20 59.90 59.84 60.05 60.78 60.75 60.56 60.67 61.05 61.19 60.99 61.83 62.10 61.35 61.95 63.22 63.85 64.49 66.04 67.87 69.36
63.91 63.80 63.00 62.08 61.91 62.05 61.52 61.25 60.98 59.85 59.77 57.95 57.57 58.36 58.96 60.31 58.81 56.96 56.58 58.49 58.35 59.69 60.63 60.21 60.37 61.07 61.11 60.67 60.89 62.02 60.38 59.30 59.74 60.57 61.35 62.31 64.35 65.95
63.88 63.05 62.44 62.33 62.70 62.49 62.08 61.92 60.10 59.33 59.09 58.06 57.21 57.69 57.47 57.76 56.91 57.71 55.94 56.90 58.23 58.84 58.23 58.93 59.54 60.65 61.70 62.10 63.88 64.17 62.33 60.31 58.61 58.61 58.72 59.21 60.43 61.76
62.11 61.57 60.44 60.42 60.85 60.83 61.46 62.19 62.32 60.39 59.33 58.02 57.38 56.41 57.46 57.71 57.79 56.19 55.70 54.67 53.55 58.88 57.74 56.83 59.06 58.11 60.61 60.94 61.76 63.96 62.80 61.34 59.53 58.62 58.20 58.24 58.62 59.37
60.50 60.20 59.77 60.55 60.63 59.44 59.37 59.42 60.22 60.11 60.80 60.72 56.47 57.28 57.02 57.65 57.67 56.27 55.70 54.08 54.45 55.85 55.79 53.97 56.88 56.24 60.17 61.40 60.52 60.68 62.10 61.18 60.07 59.41 58.85 57.98 57.82 57.72
59.85 59.25 59.23 58.97 58.69 58.72 58.98 58.44 57.49 57.23 57.41 56.75 57.24 56.89 57.15 57.26 57.63 57.05 55.46 55.67 56.13 56.21 56.64 52.94 56.34 55.57 58.83 61.11 60.65 61.41 61.79 60.48 59.45 58.73 57.93 56.97 55.83 55.08
59.45 57.95 57.56 58.72 56.75 55.95 57.24 56.18 55.71 55.73 56.00 55.76 55.80 55.67 55.69 56.05 56.66 56.35 54.23 53.49 52.22 53.32 56.02 54.00 54.87 55.21 57.20 58.51 61.49 61.33 60.72 59.51 58.23 57.81 57.85 56.57 54.39 53.45
57.41 58.20 56.14 55.60 53.61 52.68 55.68 54.35 53.84 54.13 53.51 53.74 54.11 54.87 55.67 55.89 56.41 57.54 56.67 53.05 52.22 51.28 55.01 53.34 54.15 55.26 54.57 58.50 60.10 63.03 66.91 58.13 56.39 55.77 56.45 55.71 52.77 60.62
56.66 56.40 56.06 52.79 50.88 50.29 49.89 54.25 53.28 53.74 53.04 52.42 52.16 52.63 53.50 53.68 54.65 56.24 56.46 54.14 52.07 52.38 55.84 55.47 54.62 56.51 55.97 58.33 63.55 63.46 66.41 66.28 62.85 58.22 53.02 52.16 51.05 59.95
56.14 54.57 54.57 49.03 48.72 49.02 51.87 50.56 50.37 51.37 52.10 51.35 50.71 50.48 51.44 52.20 53.63 53.86 55.26 54.72 55.69 55.31 56.07 59.26 56.77 57.17 56.51 56.75 58.60 63.53 65.26 64.51 63.50 61.79 59.72 53.75 51.72 53.99
53.32 52.09 49.96 47.53 46.91 50.12 50.51 50.12 49.64 50.67 50.05 48.59 47.56 49.04 50.81 52.31 53.46 53.56 54.27 54.68 55.67 55.69 58.68 59.27 59.93 59.66 59.81 60.31 64.14 61.83 63.19 62.25 63.25 60.51 58.86 57.72 56.77 59.11
49.74 49.86 51.09 50.81 50.75 50.29 49.46 48.36 48.90 49.27 48.76 46.89 46.81 48.52 50.14 50.68 49.85 52.34 51.42 52.52 52.34 53.80 57.68 59.16 60.46 60.00 58.64 59.36 62.84 64.41 63.31 61.07 61.66 61.26 60.49 59.97 59.16 60.84
47.42 52.22 52.94 51.70 48.09 47.11 46.08 45.97 46.16 46.47 45.33 45.55 45.48 46.22 47.66 47.73 47.40 50.69 50.71 50.81 50.83 51.78 54.53 56.75 59.24 60.67 59.87 59.57 62.32 65.00 62.95 61.74 62.36 61.78 60.67 59.95 60.02 61.12
48.88 51.31 49.43 45.62 45.33 44.58 43.66 43.21 43.82 43.50 43.50 43.68 43.55 44.36 44.51 45.19 45.62 48.13 49.28 49.33 49.40 51.60 53.89 55.41 56.01 57.42 58.80 57.68 56.61 56.99 63.53 63.41 62.04 61.90 62.98 61.65 60.99 61.74
49.27 47.64 46.43 44.29 43.05 42.30 41.56 41.38 41.22 42.09 42.78 42.32 42.71 42.67 42.74 43.97 44.59 46.22 46.77 47.81 48.85 50.77 53.56 54.81 54.75 54.29 55.13 53.94 56.03 52.44 53.07 62.79 62.72 61.46 62.42 62.69 62.29 62.21
45.47 44.90 43.29 41.21 40.57 40.84 40.74 40.15 40.39 41.24 41.38 40.91 41.13 41.23 41.84 41.89 42.42 44.26 45.51 45.68 47.29 51.32 52.64 53.31 53.28 53.66 52.45 52.61 53.73 54.90 49.57 56.45 61.34 62.46 62.86 65.35 64.74 59.22
42.76 41.66 41.29 41.34 41.48 41.60 40.06 38.59 38.64 40.02 39.81 39.58 40.11 40.08 41.10 41.44 42.24 43.31 42.98 43.83 46.71 50.04 50.19 50.83 52.65 54.07 55.03 56.07 52.50 53.09 56.57 52.10 54.31 58.99 60.64 63.07 63.47 63.56
42.62 42.72 42.60 42.29 42.06 39.39 37.51 37.21 39.13 39.25 39.06 39.09 39.11 39.69 40.73 41.81 41.90 42.55 43.17 42.65 45.31 47.11 49.18 51.02 52.81 52.62 52.03 51.68 50.29 50.55 51.64 54.79 55.63 53.94 53.32 53.49 60.11 62.46
43.66 43.17 42.06 40.47 37.90 36.84 37.68 38.34 38.64 38.83 38.31 38.38 38.81 39.62 40.51 41.08 42.40 42.83 43.05 43.96 44.43 45.89 47.27 48.07 49.78 51.00 50.19 50.57 49.83 49.89 49.68 50.73 52.45 53.16 52.86 52.93 52.96 52.58

GFSNE_sfc_wetblb_009.txt.gz
Wetbulb
69.44 69.83 68.71 67.90 68.22 67.98 67.38 65.79 62.52 58.84 59.85 61.95 61.26 64.64 64.92 65.15 65.55 66.19 65.82 64.58 63.49 63.33 62.59 62.46 63.01 63.59 64.20 64.55 65.41 67.45 69.12 70.00 70.70 72.01 72.86 73.64 74.64 75.54
68.44 69.04 69.09 68.25 68.44 68.72 67.91 66.57 65.01 62.09 59.55 62.24 62.46 64.42 65.70 65.36 65.73 65.76 66.03 63.81 63.78 62.72 62.20 61.87 62.51 63.09 63.52 63.89 64.25 65.14 66.67 68.22 68.74 69.87 70.78 71.79 72.62 73.55
69.42 68.92 68.95 69.49 67.67 68.07 67.91 66.82 65.01 63.84 61.20 62.15 63.53 65.15 65.06 65.20 65.74 66.47 66.11 65.73 64.55 62.81 62.57 62.09 61.74 61.90 62.20 62.55 62.77 63.38 64.24 65.72 67.24 68.17 69.19 70.29 71.28 71.95
68.21 68.55 68.32 67.74 68.20 68.63 66.85 67.08 66.72 65.90 62.97 61.50 64.16 63.57 65.06 65.90 65.39 65.30 64.83 64.65 64.37 63.35 61.87 61.31 60.75 60.81 60.80 60.83 60.72 61.36 61.90 62.93 64.41 65.83 66.99 68.14 69.46 70.40
68.11 68.02 67.82 68.07 67.49 66.79 66.60 65.50 65.10 66.80 64.75 61.60 61.41 62.91 63.60 64.49 64.10 64.90 64.42 64.43 64.00 63.22 61.39 60.83 60.94 60.81 60.25 59.38 59.19 59.13 58.86 59.53 60.77 62.44 63.59 64.60 66.43 68.09
68.30 68.28 68.21 67.68 67.20 66.68 65.89 65.97 65.40 64.42 64.07 62.50 61.38 61.53 62.08 64.28 63.07 61.47 60.80 62.44 61.87 62.97 62.70 61.71 61.51 61.29 60.73 59.39 59.30 59.51 58.22 57.36 57.70 58.96 60.47 61.17 63.25 65.21
68.12 68.46 68.47 67.48 65.15 64.38 63.86 64.59 65.19 63.60 62.19 61.18 60.44 60.78 60.54 60.51 60.07 61.11 60.14 60.69 61.95 62.17 61.22 61.82 62.08 61.63 62.04 60.95 62.05 61.89 60.36 59.24 58.15 57.94 58.35 58.88 59.64 61.44
67.30 68.18 67.84 63.87 63.42 61.76 61.56 62.18 63.09 63.12 62.25 63.51 61.14 59.85 60.54 60.55 61.00 59.93 58.90 57.69 56.01 62.09 60.82 60.11 61.55 60.14 61.31 61.87 60.59 60.15 59.67 59.55 59.13 58.79 57.83 57.63 58.03 59.16
67.65 67.22 65.99 64.65 62.72 64.18 61.70 60.53 60.36 60.41 61.29 62.58 60.14 60.22 60.06 60.72 59.99 58.43 57.90 56.07 55.22 59.52 59.87 58.64 60.08 59.82 59.98 59.90 59.48 59.03 58.69 58.46 58.30 59.11 58.33 57.57 57.11 56.99
67.27 66.59 65.58 64.82 64.63 62.33 62.42 62.26 62.94 62.99 62.75 61.41 61.17 60.74 60.50 60.09 59.08 58.08 56.42 55.81 56.86 58.99 61.10 56.49 58.77 56.98 58.10 59.17 59.43 59.11 58.62 58.19 57.71 58.00 58.27 56.93 55.44 54.63
67.02 65.41 63.97 63.62 59.25 56.38 59.88 60.77 61.40 61.57 59.15 56.15 55.81 55.52 55.43 55.57 56.46 56.37 54.81 55.32 54.30 56.98 59.10 54.38 54.23 54.15 55.60 56.86 60.05 59.33 58.24 57.33 56.73 57.28 58.35 56.73 54.37 53.12
64.88 62.85 57.32 59.76 53.99 53.98 59.74 60.49 59.31 60.12 59.03 58.65 58.62 58.15 57.95 58.55 57.05 58.77 56.44 54.25 54.96 52.86 55.73 52.96 53.33 53.62 52.28 56.50 59.54 61.78 63.09 56.67 55.25 55.89 56.93 56.08 53.49 64.30
62.98 62.08 62.28 53.62 51.52 50.64 50.80 60.01 58.01 55.82 56.75 56.85 56.65 57.08 57.71 58.19 58.66 58.89 58.84 56.94 55.69 52.88 55.10 54.95 53.72 54.17 53.47 53.61 57.30 58.73 62.78 63.08 63.31 60.75 53.87 53.69 51.89 60.65
63.31 62.80 60.15 50.79 48.47 49.83 52.36 51.62 50.92 51.27 55.96 55.40 54.96 55.01 55.11 55.24 56.04 56.10 56.95 57.85 58.56 55.37 55.71 55.53 53.87 53.71 54.88 54.42 56.39 60.18 63.44 64.68 67.02 65.80 65.12 57.51 51.58 53.98
61.19 55.96 50.39 48.33 47.66 48.94 52.09 50.44 49.47 55.02 54.23 53.34 52.81 52.76 53.22 54.03 55.22 54.88 56.21 58.60 58.69 56.97 55.97 56.19 56.97 57.41 57.89 57.41 57.49 60.19 60.74 65.59 67.04 65.06 63.87 60.45 58.35 59.63
53.37 57.90 53.31 51.74 50.84 54.29 52.81 52.96 53.23 53.56 51.88 51.36 50.92 51.64 52.53 52.58 51.85 52.45 52.94 54.93 53.58 55.70 55.32 57.17 57.42 58.17 58.11 58.92 59.76 58.33 62.54 61.68 63.52 63.26 62.15 61.99 62.41 64.13
54.88 58.17 58.16 57.52 56.69 56.04 53.30 53.08 53.07 52.29 50.81 50.63 50.04 49.87 49.83 49.94 50.06 51.52 53.15 53.99 53.06 53.31 52.63 55.33 56.68 58.18 58.66 58.28 59.00 59.48 63.14 63.38 63.36 61.53 61.60 60.43 61.45 63.45
53.73 55.73 56.04 55.81 54.99 54.29 53.54 52.43 51.87 49.47 49.70 49.12 49.19 49.02 48.25 48.22 48.67 50.30 53.43 53.55 53.13 54.11 53.57 54.30 54.27 54.51 57.63 56.69 56.15 54.13 56.63 65.06 64.43 63.94 64.04 62.36 60.79 62.14
54.37 55.46 54.82 54.25 53.52 52.43 50.91 50.46 49.34 48.74 48.57 48.20 47.97 48.26 47.86 47.88 47.90 49.77 50.57 50.52 49.58 51.90 53.69 54.06 53.34 51.82 50.77 50.29 56.37 53.64 53.57 56.55 62.91 61.78 62.64 62.82 62.97 62.38
55.08 54.41 53.54 52.10 50.85 50.41 50.71 49.12 47.98 47.08 46.89 47.16 47.33 47.72 47.60 47.18 47.49 48.78 49.34 47.28 49.25 49.54 53.76 55.03 52.96 51.09 50.42 50.66 52.12 54.32 52.73 54.11 56.65 62.85 62.10 63.41 62.66 60.04
52.84 51.84 51.51 50.54 50.69 50.90 50.11 47.77 45.46 45.28 45.44 46.48 46.90 47.02 47.14 47.18 47.23 48.07 49.12 47.04 48.14 47.83 49.51 52.13 52.31 52.95 54.28 54.73 51.81 51.74 54.51 51.55 52.22 53.95 57.81 62.39 62.80 62.64
52.07 51.27 50.72 51.15 50.94 49.83 47.39 45.63 45.21 46.61 46.96 46.48 46.50 46.95 47.16 47.24 46.87 47.24 48.41 49.12 50.30 50.36 50.45 51.82 53.17 52.52 51.46 50.47 49.59 50.55 51.22 52.06 53.93 53.13 52.53 51.74 58.36 61.71
51.15 51.59 50.40 50.39 48.53 47.37 45.88 46.07 47.15 47.15 46.83 46.25 46.17 46.33 46.97 46.28 47.38 47.57 47.84 49.05 49.21 49.96 48.66 49.76 51.16 50.37 49.25 48.99 49.64 49.44 49.94 49.56 50.47 50.82 51.54 51.45 52.57 52.57

GFSNE_sfc_wetblb_015.txt.gz
Wetbulb
70.77 70.57 68.82 67.60 67.27 67.18 67.97 67.15 64.09 60.24 60.44 65.36 65.85 68.87 69.28 67.70 68.11 67.78 68.30 68.32 67.05 64.76 64.11 64.22 64.27 64.40 63.97 64.00 64.38 64.69 64.45 64.70 64.68 65.09 65.84 66.83 68.77 70.96
68.69 70.42 70.27 68.04 68.38 67.67 67.97 67.80 66.77 64.31 60.75 65.60 65.75 68.57 69.78 67.60 69.16 68.60 68.02 68.02 66.47 65.74 65.10 64.08 63.97 64.25 64.47 64.58 64.22 64.20 64.49 64.77 64.75 64.82 65.24 65.55 66.52 68.39
69.99 69.23 69.58 70.92 67.68 67.16 67.03 66.70 65.25 64.78 62.44 63.45 65.21 67.97 70.60 69.71 69.04 69.54 68.85 68.53 67.93 65.75 65.44 64.54 63.41 63.36 63.42 63.52 63.27 63.36 63.47 63.73 63.67 64.06 64.30 64.39 64.94 66.04
68.27 70.06 68.75 68.00 71.65 71.71 67.91 68.20 66.27 68.61 63.82 65.13 66.47 65.38 68.13 69.49 70.11 70.36 67.51 66.46 66.91 65.64 65.33 64.22 63.17 62.12 61.82 61.84 61.43 61.43 61.12 61.30 61.69 62.04 62.58 63.10 63.62 64.15
69.73 70.17 69.72 70.45 71.10 68.90 70.16 67.89 65.90 67.29 66.84 63.52 63.35 65.65 64.96 66.62 67.03 67.19 66.75 66.27 66.62 65.99 63.34 62.83 62.48 61.92 61.26 60.26 59.69 58.95 58.44 58.42 58.71 59.16 59.57 60.44 61.60 62.54
70.59 70.78 70.28 70.23 71.08 71.05 69.35 70.37 69.16 67.03 66.23 63.76 62.98 63.12 63.75 62.82 66.14 63.97 62.35 62.02 63.64 64.91 65.28 63.51 63.34 63.56 61.89 60.46 59.81 59.57 57.61 56.47 56.34 56.46 56.82 57.44 58.70 60.11
70.14 70.54 70.60 70.44 68.10 67.79 67.90 69.32 70.11 66.34 63.91 62.92 62.12 61.52 62.35 62.56 62.24 63.25 61.81 62.41 62.36 65.02 64.36 64.30 64.11 64.01 64.29 63.41 63.19 62.41 59.96 58.48 56.79 55.76 55.42 55.22 55.73 57.01
69.87 70.82 71.17 69.06 67.47 64.98 64.46 63.54 64.45 65.00 65.37 62.94 61.81 61.33 63.29 63.15 63.09 61.94 61.37 59.64 57.67 64.22 62.47 61.49 63.27 63.28 64.37 65.54 63.46 61.43 59.71 59.22 58.20 57.04 55.90 55.18 55.09 55.54
68.82 70.65 69.92 68.44 67.45 68.76 64.63 63.02 62.42 61.81 61.53 64.38 63.34 63.47 63.67 64.73 64.99 63.29 62.53 60.76 58.51 60.10 61.12 58.95 62.08 62.00 64.09 65.08 61.16 60.12 58.99 58.25 57.53 56.98 56.65 55.74 55.30 54.76
68.82 71.02 70.93 70.15 69.47 67.81 67.00 64.23 65.38 67.67 66.43 64.05 64.83 64.97 65.71 65.51 63.15 61.79 61.50 60.88 60.73 60.79 62.83 57.91 61.50 60.30 61.99 64.71 61.36 60.64 59.18 58.16 57.32 56.40 55.64 55.01 53.74 52.93
67.84 70.41 70.49 69.27 63.35 61.16 62.49 63.05 65.50 66.24 64.00 60.83 60.07 58.68 57.51 57.49 58.51 59.43 57.88 56.97 56.28 57.95 61.23 59.79 59.81 60.73 61.61 61.70 62.68 60.55 57.91 56.43 55.65 55.78 55.75 54.85 53.16 51.95
67.52 69.86 62.24 63.94 58.46 57.90 61.08 62.86 62.85 63.80 63.96 64.43 63.87 61.15 58.78 61.10 57.96 60.58 59.98 57.21 56.87 56.18 60.33 57.71 57.85 59.00 56.02 59.75 59.77 58.61 57.76 56.81 54.61 54.49 54.26 53.76 52.61 57.38
65.44 67.54 67.45 56.56 54.50 53.01 54.40 62.11 62.10 60.70 62.90 61.56 60.66 60.98 61.84 62.53 60.27 62.26 63.39 59.82 56.50 56.12 59.14 57.66 57.09 58.90 58.68 56.09 56.37 56.98 57.64 57.38 58.89 58.95 53.97 52.26 51.24 54.29
65.73 67.43 65.96 53.96 51.80 52.03 53.43 56.55 54.24 53.80 59.61 59.06 59.50 58.48 59.49 58.14 58.74 60.05 62.40 61.31 60.20 60.18 60.09 60.74 59.28 59.40 56.54 53.71 52.62 54.97 57.09 58.05 58.47 59.63 60.11 57.21 50.63 51.32
65.94 60.13 54.81 52.88 52.54 51.34 52.00 54.30 53.11 58.14 58.66 58.94 58.99 57.64 56.96 58.03 61.50 60.38 61.67 62.67 62.29 61.31 62.15 63.71 61.94 60.63 58.51 54.04 52.57 53.18 55.14 55.98 58.45 60.83 61.02 61.26 60.91 58.16
57.11 60.35 58.76 58.01 56.39 56.25 57.27 55.19 58.35 59.38 59.33 58.00 56.27 56.89 57.31 56.60 55.42 55.66 53.82 53.84 53.59 57.26 62.46 62.78 63.16 61.41 58.36 55.73 53.56 53.05 54.56 52.59 55.28 58.15 60.51 64.90 65.26 62.67
63.15 64.75 61.86 61.47 61.18 60.44 59.09 58.88 58.68 59.73 58.78 57.57 56.34 55.31 54.64 54.56 53.81 54.03 52.73 53.16 53.00 55.36 56.40 58.92 60.34 62.54 60.92 56.80 52.47 53.85 54.25 52.96 54.06 55.05 57.63 66.24 66.82 64.45
61.00 62.18 61.35 60.99 61.29 59.73 60.36 58.83 59.66 58.86 57.83 56.96 55.45 54.56 53.34 52.67 51.99 52.04 52.71 52.38 53.21 55.07 55.71 58.19 59.29 56.36 54.78 55.75 56.54 53.53 52.81 51.86 52.87 54.17 56.08 62.51 63.45 67.14
59.42 59.99 59.76 60.00 60.20 60.66 60.52 58.39 57.38 57.16 57.71 55.39 54.42 53.67 52.61 51.90 51.23 50.98 51.42 51.55 52.21 54.45 55.60 58.68 58.24 53.03 49.30 48.25 52.89 54.26 51.26 51.45 51.61 51.66 53.22 55.14 62.42 63.87
58.62 58.97 59.27 59.76 59.26 58.51 57.67 56.62 56.22 55.91 55.06 54.04 52.81 52.28 51.90 51.26 50.43 50.61 50.67 51.07 50.90 54.22 54.65 55.59 54.63 50.62 49.36 50.10 49.55 52.36 50.15 50.51 49.95 49.90 50.40 52.22 55.84 60.13
59.68 59.13 58.50 57.83 57.35 56.98 56.26 56.01 55.54 54.01 52.01 50.79 51.59 51.54 51.25 50.89 50.45 50.60 50.54 47.55 48.58 52.05 52.66 54.32 53.06 52.05 53.24 55.29 49.88 49.56 51.86 50.37 50.40 50.17 49.90 49.37 52.01 63.29
59.65 58.25 57.49 57.17 56.39 56.00 55.57 54.80 53.40 52.17 51.72 51.44 51.15 50.84 51.05 50.70 50.07 49.81 50.07 49.72 50.18 50.18 51.33 55.40 55.92 53.38 51.56 50.96 48.90 49.33 49.06 50.35 51.04 51.30 50.98 50.35 49.02 48.92
58.63 57.89 57.17 57.09 56.24 55.43 53.93 52.41 51.29 50.68 51.07 50.67 50.42 50.45 50.49 49.71 50.61 50.39 50.16 49.94 50.09 49.59 50.29 52.71 54.57 53.92 51.64 48.72 50.01 49.32 47.84 47.76 48.21 47.51 48.67 49.89 50.63 51.05

GFSNE_sfc_wetblb_021.txt.gz
Wetbulb
64.88 64.61 63.16 63.31 63.18 63.06 63.57 60.57 57.33 53.80 55.03 58.65 61.13 63.88 63.94 64.71 64.94 64.45 61.77 66.02 66.97 67.03 65.39 64.71 65.01 65.59 66.24 66.51 66.26 66.12 66.20 66.15 65.81 65.50 64.99 64.73 64.80 64.99
65.88 66.20 65.03 63.12 63.78 62.92 62.51 60.75 61.01 57.99 56.03 59.47 61.02 62.06 63.14 64.35 66.76 63.37 63.52 67.29 67.40 66.51 65.50 64.44 64.45 65.01 65.57 65.90 65.82 65.52 65.45 65.44 65.66 65.51 65.29 65.34 65.31 64.71
66.23 65.85 65.45 64.20 63.00 62.37 63.47 62.18 61.63 61.82 59.24 58.59 59.77 60.62 62.90 61.48 63.04 62.94 64.09 63.76 63.37 65.41 65.47 64.79 63.98 64.06 64.55 64.96 65.08 64.93 64.83 64.65 64.87 65.05 65.35 65.23 65.17 65.29
65.47 64.44 64.16 65.99 63.83 63.57 63.91 62.87 62.78 61.90 59.42 57.80 60.42 60.53 61.54 62.81 63.24 62.95 64.67 66.30 63.76 65.40 65.28 64.73 63.79 63.41 63.21 63.06 63.24 63.09 62.82 63.00 63.17 63.28 63.74 64.33 64.70 64.80
66.15 65.10 64.50 64.34 64.05 64.77 65.22 63.99 62.95 62.86 61.68 59.95 58.97 60.59 60.23 61.12 60.00 60.39 61.36 61.80 64.24 66.06 63.76 62.91 62.47 62.31 61.73 60.99 60.67 60.08 59.43 59.34 59.53 60.06 60.76 61.43 62.43 63.41
65.56 65.84 65.42 64.81 63.79 65.71 64.99 64.56 63.41 62.44 61.80 60.81 59.59 59.55 59.51 60.26 59.99 58.24 57.71 59.11 59.92 63.71 63.92 62.77 62.57 62.86 62.44 60.94 60.40 60.43 58.33 57.09 56.61 56.75 57.20 57.89 59.08 60.16
65.64 65.76 66.29 67.29 67.72 67.02 66.17 64.64 64.20 62.60 61.90 61.11 59.41 57.70 58.37 58.80 57.17 58.10 57.73 58.07 58.46 59.72 58.70 57.94 56.73 55.97 57.04 58.97 61.68 63.19 60.84 59.02 57.29 56.48 55.56 55.25 55.47 56.48
65.00 66.18 66.27 67.99 67.41 65.70 65.20 63.95 63.78 62.19 60.73 59.81 58.16 57.18 58.42 59.73 58.79 58.23 57.54 56.40 55.31 58.97 56.08 56.47 55.49 55.01 56.05 55.85 60.42 60.49 59.55 58.64 57.65 57.14 56.16 55.13 55.13 55.32
65.44 66.53 66.64 67.79 66.08 65.62 63.58 63.58 63.57 63.27 62.92 60.84 57.69 57.69 57.65 58.89 59.67 57.43 56.76 56.42 55.86 58.08 54.47 53.38 54.61 54.30 57.64 58.55 60.05 60.02 59.42 58.53 57.53 56.84 56.47 55.85 55.01 54.38
66.36 66.54 64.52 62.97 64.05 64.35 63.91 63.46 63.23 63.41 62.91 62.23 59.64 60.61 59.98 60.80 60.37 59.57 57.95 56.04 54.85 55.09 55.13 51.80 54.53 53.84 55.84 56.48 59.65 59.74 58.76 57.56 56.96 56.30 55.76 54.65 53.10 52.15
64.85 64.80 61.28 61.65 62.69 61.58 62.58 61.15 60.97 61.88 62.08 60.53 60.92 60.93 59.94 59.60 60.59 56.56 54.32 53.09 51.31 51.44 53.46 52.87 54.41 50.97 51.31 51.16 52.34 57.66 57.11 56.36 55.77 55.70 55.45 54.49 52.65 51.41
63.47 64.40 61.64 62.52 59.94 58.90 62.09 60.20 60.46 60.33 59.76 59.43 59.57 58.79 57.85 57.26 58.91 56.44 56.78 53.36 51.98 50.86 53.98 52.23 50.32 47.93 47.31 49.36 51.35 55.05 56.33 56.27 54.55 53.48 53.80 53.66 52.27 54.16
62.63 64.33 63.83 58.75 56.06 55.79 56.94 60.55 59.58 57.80 57.74 55.27 55.32 55.43 54.98 54.94 56.89 57.30 57.14 55.56 53.05 52.53 55.31 50.79 48.23 47.88 48.10 49.06 52.59 55.27 56.62 56.57 56.85 55.89 53.40 51.78 51.34 52.65
62.08 61.84 62.42 57.38 54.58 54.78 55.62 57.04 54.33 54.81 53.83 53.33 53.33 52.94 52.90 54.18 53.71 53.43 54.31 56.02 56.74 54.94 53.58 51.84 50.17 50.88 50.58 50.44 51.47 54.47 55.17 56.35 55.57 54.84 55.09 54.54 52.38 52.16
61.71 57.53 55.04 54.83 53.50 53.39 54.82 56.00 53.99 52.52 52.56 51.80 52.34 53.17 52.94 54.23 54.12 51.11 51.35 50.10 49.24 49.11 51.16 50.46 52.36 53.13 53.66 50.88 52.29 52.49 53.00 53.83 54.80 54.14 54.14 54.44 52.55 52.95
57.24 56.52 55.38 54.87 54.40 55.49 54.38 53.30 52.44 52.40 52.09 53.01 54.97 52.93 52.09 49.23 48.62 49.06 47.10 46.36 44.46 44.81 48.14 49.99 52.59 55.88 52.94 51.40 51.60 51.61 52.75 51.26 52.88 52.96 53.32 52.63 52.03 52.38
56.74 57.12 55.86 54.79 53.55 53.39 53.52 55.03 52.53 53.08 53.04 54.74 55.96 51.60 48.46 47.95 47.86 47.05 45.89 44.04 42.59 43.76 44.72 48.71 50.34 54.28 53.69 52.07 50.38 51.63 51.67 51.24 51.84 51.99 50.74 49.42 50.09 51.64
56.44 57.71 54.98 55.02 54.56 54.67 54.20 54.15 55.88 56.36 55.53 55.65 53.49 48.68 47.42 47.35 45.35 45.49 44.79 43.59 43.67 43.27 44.30 44.88 46.53 50.23 49.41 49.86 54.79 51.08 51.36 51.10 52.03 50.71 50.00 47.87 47.55 49.92
56.74 57.14 57.06 57.14 56.12 56.54 56.46 57.09 56.19 55.31 55.34 50.80 49.40 47.76 45.57 44.76 45.40 44.35 43.38 43.74 43.30 42.97 43.36 43.29 48.72 47.46 45.41 45.60 48.28 53.29 51.61 51.40 50.16 48.09 48.51 47.69 46.54 48.01
54.40 54.60 53.68 53.78 53.00 52.46 50.80 50.32 49.61 49.61 47.97 45.08 44.09 43.80 43.45 44.25 43.66 42.99 42.90 42.03 41.76 42.00 42.14 43.96 47.54 47.12 46.27 45.30 47.82 50.42 49.97 49.08 47.77 46.81 46.45 46.99 48.05 50.05
52.77 52.32 53.56 51.46 50.26 50.47 50.19 49.70 48.09 46.78 45.35 44.39 43.30 43.60 45.06 42.69 42.24 42.30 42.79 44.43 44.19 41.64 42.25 40.79 42.53 52.27 49.13 48.86 45.69 46.63 49.40 49.30 48.82 47.35 46.18 44.16 44.17 45.59
52.79 52.19 51.74 50.55 49.94 49.80 49.28 48.00 46.77 46.21 45.36 45.31 45.06 44.20 42.82 42.55 41.71 42.27 42.53 41.30 42.07 41.61 42.15 41.79 44.86 48.58 47.47 44.45 43.63 44.48 46.29 46.67 48.52 49.43 48.62 46.67 43.71 41.22
51.71 51.25 50.44 49.91 49.78 48.88 47.90 46.19 44.73 44.01 43.11 43.38 42.30 41.41 41.86 42.13 42.70 42.16 41.54 42.86 41.99 41.32 40.93 40.96 41.40 47.89 44.80 43.95 44.00 43.06 43.78 44.43 45.40 45.20 44.78 47.22 46.43 47.35

GFSNE_sfc_wetblb_024.txt.gz
Wetbulb
63.24 62.50 63.13 61.49 62.26 61.39 61.26 57.94 55.87 52.97 53.25 56.60 58.51 61.72 62.47 61.64 63.62 65.70 62.21 65.53 66.58 66.12 65.46 64.93 65.31 65.99 66.62 67.05 67.15 67.26 67.02 66.66 66.56 66.34 66.34 65.48 64.87 65.07
65.15 64.06 62.92 62.02 61.97 61.60 61.32 59.75 58.29 55.57 53.20 57.54 59.53 60.22 61.47 63.03 64.52 63.85 62.72 65.44 65.69 65.98 65.37 64.94 65.04 65.17 65.77 66.01 66.23 66.22 66.19 66.31 66.16 65.95 65.85 65.90 65.92 65.27
65.53 64.47 63.81 62.87 62.06 60.71 62.47 60.70 60.16 60.45 58.71 58.78 58.96 58.78 61.52 60.24 61.38 63.07 62.83 61.98 62.67 64.94 65.13 64.96 64.30 64.30 64.83 65.02 65.04 65.20 65.53 65.56 65.34 65.56 65.75 65.98 65.91 65.89
63.79 64.49 63.64 65.16 63.83 62.52 62.14 61.65 61.24 60.67 59.64 57.64 58.85 59.71 59.85 60.63 60.65 61.04 62.24 64.29 63.21 64.85 64.29 63.88 63.46 63.17 62.82 62.70 62.65 62.78 62.87 63.37 63.72 63.72 64.47 64.96 65.28 65.39
64.96 63.92 63.48 62.39 62.26 62.11 63.04 62.61 62.96 63.56 61.93 60.59 58.33 59.50 59.59 59.79 59.62 59.18 60.16 60.45 62.53 65.50 63.83 62.87 62.27 61.78 61.28 60.43 59.91 59.39 58.93 59.37 59.78 60.32 61.02 61.76 62.80 63.59
64.82 65.05 64.28 63.51 62.98 63.67 63.83 64.49 63.59 63.00 61.92 61.08 60.56 60.72 60.07 59.99 60.48 58.11 57.22 57.73 58.48 61.77 62.87 62.05 61.91 61.70 60.77 59.36 59.94 60.32 58.39 56.90 56.37 56.43 56.85 57.59 58.79 60.10
64.53 64.92 64.98 65.53 66.05 63.96 64.87 64.07 64.09 62.59 61.61 60.86 60.18 60.35 59.51 57.62 58.26 58.98 57.21 57.45 58.49 58.05 57.26 56.70 56.48 55.29 56.09 57.58 59.12 60.95 59.64 58.42 57.19 56.46 55.92 55.38 55.58 56.39
64.18 64.08 64.80 66.61 66.38 65.26 64.80 64.54 63.66 62.16 61.12 60.30 60.04 59.11 58.82 58.40 58.09 57.84 56.62 55.34 54.27 58.10 56.22 55.30 54.56 53.64 54.70 54.89 58.65 59.47 58.94 58.33 57.72 57.20 56.21 55.13 54.99 55.31
65.43 63.96 64.67 66.82 66.02 65.16 63.33 63.28 63.23 63.06 63.14 61.95 59.90 59.25 57.17 57.43 57.58 56.82 56.02 55.20 54.60 57.41 54.16 51.63 53.31 52.74 55.38 56.91 59.08 59.20 58.60 57.83 57.34 56.78 56.15 55.50 54.91 54.56
65.90 65.80 64.82 65.43 63.93 64.33 63.53 62.03 62.70 63.35 63.14 63.02 61.90 61.18 59.49 59.03 58.75 58.71 57.39 55.60 54.38 55.05 53.85 50.98 53.12 52.85 54.60 55.02 58.51 59.23 57.53 56.26 56.14 55.48 55.29 54.34 53.17 51.87
66.29 66.65 66.54 63.89 61.15 60.95 61.99 60.97 61.59 61.78 62.26 60.34 60.52 59.93 59.16 59.12 59.78 57.34 56.10 52.59 51.36 51.52 52.49 51.76 52.00 51.63 50.82 50.71 51.11 55.91 55.74 54.76 54.55 54.96 55.05 54.48 52.56 51.55
64.66 64.73 61.02 61.10 58.19 57.53 60.63 59.91 58.61 59.39 60.19 59.68 58.26 57.98 58.28 57.87 58.72 58.07 55.54 53.36 51.51 50.43 53.30 51.72 50.50 48.87 46.45 46.66 48.14 50.13 51.90 54.02 53.34 53.42 53.69 53.20 51.76 54.00
62.55 61.96 62.95 57.81 55.13 54.59 56.32 61.15 60.11 58.67 59.16 57.21 54.98 54.78 54.62 53.56 54.19 55.13 55.76 54.64 51.43 50.48 54.24 51.79 47.92 46.48 45.19 46.36 49.97 52.49 53.52 54.38 54.22 54.43 52.90 51.45 50.68 51.43
60.18 61.89 62.93 56.38 54.05 53.40 54.56 56.34 56.06 57.02 55.57 54.16 52.32 51.57 51.70 52.59 52.59 51.87 51.94 53.97 56.14 53.61 54.18 50.99 48.70 47.82 46.60 46.64 48.01 50.84 51.49 52.26 52.75 53.54 53.47 52.65 51.53 51.23
63.49 60.87 56.58 52.83 50.66 54.00 54.93 56.38 54.37 54.66 53.53 50.76 49.94 50.72 52.04 52.04 50.93 48.78 48.95 48.12 47.40 46.87 49.71 47.08 49.22 47.67 48.83 49.76 50.59 48.87 49.40 50.10 51.75 51.69 52.52 52.11 51.82 51.78
58.70 56.32 55.56 55.22 54.15 54.74 54.80 53.92 53.65 52.42 51.31 50.35 50.43 52.26 51.83 48.53 46.96 47.21 45.70 44.68 42.52 43.17 46.20 47.25 47.75 48.67 49.76 50.26 48.85 50.37 50.85 47.93 50.89 51.69 51.80 51.72 52.06 51.07
56.60 55.50 54.62 54.32 53.38 53.10 52.90 52.52 51.47 51.00 51.30 52.13 52.43 52.25 50.29 46.48 46.35 45.24 44.07 42.34 40.85 41.11 42.91 44.51 46.31 47.11 50.61 50.83 50.25 50.21 49.40 49.70 50.95 51.15 50.65 48.66 49.04 49.55
56.54 55.62 54.07 53.09 52.94 52.82 52.34 51.98 52.28 53.23 51.82 52.12 52.21 50.11 46.57 45.75 44.65 43.40 42.53 41.08 40.17 41.30 41.02 41.78 42.13 46.13 47.70 48.60 52.76 48.54 48.16 49.47 50.93 51.21 48.88 46.52 46.55 47.67
55.98 55.46 55.48 54.43 54.50 54.21 53.75 53.01 53.14 53.96 53.07 52.04 47.78 46.74 44.90 42.96 42.70 42.63 41.08 40.58 40.90 39.96 40.40 40.08 42.24 44.69 43.11 42.46 46.41 51.33 48.10 49.52 49.47 46.96 46.70 46.84 45.65 45.27
54.15 54.90 54.26 53.75 53.08 52.05 51.24 49.45 49.85 49.15 46.24 43.89 43.09 42.54 41.86 42.32 42.43 40.84 39.97 39.32 39.86 39.32 39.67 40.75 41.21 41.10 43.79 43.48 44.08 46.98 49.10 47.50 46.20 44.77 45.61 46.37 45.95 47.79
51.69 51.72 51.41 49.66 49.02 48.43 47.96 47.39 46.63 45.72 44.71 43.41 41.67 41.66 42.36 41.57 40.29 39.72 39.98 42.81 42.06 38.95 39.04 39.99 40.24 47.34 47.07 45.27 42.27 42.65 44.99 47.96 47.06 45.63 46.21 43.58 41.84 42.29
51.79 50.09 48.98 48.53 48.54 48.34 47.30 46.31 45.19 44.38 43.40 42.87 42.63 42.23 41.17 40.48 39.27 39.87 40.29 38.99 39.67 39.47 39.33 40.98 40.10 45.94 44.26 41.98 40.51 41.18 43.00 44.58 46.90 48.29 48.45 46.59 41.75 38.78
49.67 49.45 48.49 48.21 47.98 47.65 45.67 44.60 43.39 42.48 40.57 40.96 41.02 40.10 39.50 39.42 39.90 39.45 39.31 40.21 39.78 39.11 38.70 38.77 39.29 44.72 42.37 41.02 41.78 40.83 40.95 42.15 43.05 43.19 43.70 46.99 46.00 45.01

GFSNE_sfc_wetblb_027.txt.gz
Wetbulb
62.81 62.76 62.16 60.65 61.20 60.29 58.46 56.90 55.18 52.34 54.42 56.65 57.61 60.07 61.58 60.86 62.54 63.67 65.05 65.20 66.59 65.98 65.36 65.05 65.20 65.77 66.52 67.08 67.40 67.58 67.74 67.66 67.26 67.05 66.74 66.52 65.66 65.59
62.79 62.07 61.94 60.90 60.41 60.68 59.71 57.86 56.38 55.28 53.17 56.08 59.27 59.17 60.32 62.31 63.23 64.04 63.94 66.40 65.38 65.53 65.29 64.70 64.94 65.62 65.88 66.17 66.39 66.54 66.69 66.99 66.96 66.75 66.30 66.14 66.42 66.23
63.71 62.94 61.99 61.45 60.82 61.54 60.72 59.48 58.75 57.09 55.22 58.73 60.01 59.62 59.99 59.60 60.42 61.50 63.65 61.58 61.26 64.34 64.67 64.67 64.41 64.56 64.85 64.96 65.03 65.01 65.23 65.63 65.78 66.13 66.43 66.31 66.28 66.33
62.97 63.77 63.30 63.95 62.09 61.38 61.00 60.14 58.82 59.82 59.30 57.89 59.40 60.31 60.14 59.86 60.03 59.93 61.84 63.46 62.78 64.72 64.03 63.53 63.29 63.00 62.49 62.23 61.65 61.70 61.75 62.17 62.82 63.65 64.47 65.25 65.51 65.97
62.80 62.86 63.48 62.73 61.66 61.56 60.36 60.30 60.64 62.35 62.01 60.03 59.50 60.38 60.27 59.85 60.52 59.94 59.81 59.79 61.59 64.24 62.89 62.81 61.76 61.24 60.48 59.17 58.66 58.39 57.93 58.20 58.78 59.39 60.44 61.40 62.68 63.84
64.54 64.05 63.23 63.01 61.98 61.36 61.33 61.01 61.27 61.21 62.14 61.08 60.63 60.56 60.61 60.55 60.40 59.11 58.66 58.65 59.21 61.43 62.71 61.84 61.60 61.21 60.94 59.24 58.98 59.25 57.52 56.47 55.78 55.86 56.38 57.13 58.41 59.73
64.34 64.73 64.58 64.85 65.35 63.22 62.53 62.08 61.81 61.07 60.86 60.19 59.95 59.59 59.10 59.06 58.27 58.76 57.79 57.15 57.46 58.62 56.96 56.82 56.29 55.32 54.95 57.23 58.85 60.38 58.67 57.70 56.44 56.01 55.53 55.20 55.48 56.40
64.22 64.47 64.44 66.51 65.87 64.30 64.08 64.06 63.62 62.00 59.10 58.31 59.57 58.92 59.15 58.68 59.31 58.77 57.38 55.87 54.45 57.69 54.92 55.06 55.25 54.61 54.48 54.23 58.60 59.48 58.59 57.93 57.34 56.75 55.92 55.34 55.14 55.44
64.52 65.63 64.98 66.11 65.36 64.49 63.64 63.56 63.36 62.70 62.86 60.54 59.09 59.93 59.11 59.65 58.64 55.42 55.19 54.77 54.13 56.41 55.08 52.77 53.11 52.45 55.13 55.39 58.43 58.68 58.27 57.53 56.90 55.74 55.36 55.30 54.73 54.10
66.25 65.98 65.38 65.20 65.51 63.65 62.31 61.45 61.72 62.86 61.70 62.37 61.71 61.20 60.33 60.43 59.08 57.60 56.89 55.29 54.47 55.79 54.42 50.97 53.61 53.16 54.69 54.25 57.95 58.91 58.08 57.19 56.17 54.68 54.43 53.50 52.44 51.38
66.49 66.14 65.76 65.16 62.30 60.89 62.89 60.81 60.27 60.37 61.40 60.26 60.10 59.72 59.50 59.33 59.29 56.81 55.48 53.33 51.87 51.92 53.01 51.46 51.62 51.17 51.18 51.95 53.56 57.03 56.19 54.70 53.65 53.55 54.04 53.59 51.75 51.03
65.79 65.88 62.33 63.74 58.25 57.93 62.04 60.22 59.45 59.14 58.99 59.58 58.76 57.92 57.98 57.54 58.63 57.85 56.35 53.08 50.12 48.76 51.96 51.05 49.44 49.01 47.03 47.14 46.80 48.50 48.37 51.87 52.02 52.00 52.89 52.75 51.31 51.88
64.96 63.97 63.77 57.09 54.28 54.63 56.45 59.63 58.21 60.19 59.39 58.17 56.65 55.43 53.38 52.65 53.01 53.37 54.05 53.33 50.60 49.72 53.06 51.92 48.54 46.28 44.67 44.80 47.14 49.90 50.78 52.39 53.13 52.84 51.87 50.95 50.64 51.80
63.19 61.96 61.03 55.17 52.03 51.83 54.13 55.91 54.55 57.61 56.81 55.11 53.16 51.06 50.24 51.02 52.35 50.12 51.11 51.67 53.18 52.37 52.69 50.87 48.80 46.26 43.91 43.50 44.60 48.35 50.22 50.80 50.57 51.23 51.69 51.60 50.68 50.97
61.01 59.50 57.53 53.27 51.00 52.72 53.30 53.77 54.33 56.03 54.04 52.63 50.96 49.73 50.77 52.35 50.33 47.66 48.00 46.58 45.62 45.89 48.09 46.36 47.16 45.24 45.04 44.71 45.84 47.54 47.52 49.13 49.85 49.64 50.65 50.96 51.36 51.42
57.86 57.13 56.55 55.47 54.92 54.75 54.30 54.50 54.76 54.32 52.88 51.12 49.67 49.99 50.93 49.76 46.56 46.20 45.20 43.56 41.85 42.39 44.40 44.20 43.88 44.50 44.72 45.60 45.90 46.70 49.19 46.60 48.97 50.11 50.46 51.09 52.34 52.03
57.15 57.57 56.85 54.37 53.91 53.07 52.64 52.80 51.97 52.06 51.44 49.77 50.05 50.46 50.14 47.81 45.51 44.89 42.94 41.54 40.14 39.27 40.48 42.70 43.00 43.64 44.75 45.27 45.40 47.83 48.01 46.82 48.47 49.05 49.36 48.58 49.01 48.49
58.49 58.06 57.21 54.96 54.07 52.93 52.24 51.38 50.88 52.47 50.32 50.15 50.06 50.11 49.28 45.88 44.62 42.24 41.58 40.38 38.86 38.90 38.93 39.02 39.64 42.21 43.92 45.02 51.36 47.00 45.51 45.13 47.74 48.27 47.96 45.13 44.70 47.28
57.62 56.93 55.61 53.70 53.00 52.42 52.04 51.65 52.03 51.97 51.36 51.14 50.76 48.02 45.97 43.76 42.08 41.49 40.20 39.09 38.72 38.09 38.50 37.90 39.02 40.46 38.36 38.15 43.88 50.99 45.09 45.64 45.71 44.76 44.95 44.53 43.83 45.37
55.07 54.78 54.58 54.38 54.00 53.80 52.86 52.20 51.48 50.65 49.81 48.58 44.77 42.61 41.43 41.13 41.54 39.69 38.68 37.42 37.90 37.95 38.21 38.59 38.57 37.48 38.52 41.17 42.95 45.12 47.78 44.14 43.77 43.19 43.24 45.20 45.98 47.99
53.18 53.13 53.45 52.59 51.31 50.42 48.59 48.30 47.44 45.45 43.36 42.36 41.52 40.81 41.18 41.16 39.27 38.86 38.38 41.79 40.73 37.57 37.69 38.08 39.94 45.52 42.29 43.44 40.28 39.60 41.92 46.64 46.06 43.69 44.05 43.46 42.03 42.03
52.10 51.94 50.15 48.78 48.11 47.95 46.81 46.15 44.91 43.61 42.55 41.89 41.31 40.23 40.55 39.61 38.43 38.53 38.56 37.77 38.15 38.03 37.83 38.74 38.86 43.61 42.74 40.60 38.59 38.30 40.33 42.50 45.87 47.56 48.28 47.23 42.88 38.84
50.97 49.17 48.11 48.09 47.73 47.02 46.09 45.24 44.21 42.71 41.31 40.27 40.25 40.84 38.80 38.27 38.62 38.41 37.93 38.49 38.15 37.43 36.50 37.69 38.06 41.60 41.51 39.98 39.92 38.21 38.33 41.20 41.88 41.56 44.77 47.65 47.40 46.05

GFSNE_sfc_wetblb_030.txt.gz
Wetbulb
65.94 65.98 65.24 64.27 64.50 63.36 62.07 61.85 61.65 58.01 58.95 61.68 62.41 64.93 65.79 65.12 65.22 67.52 67.67 66.90 66.63 66.31 65.27 65.17 65.52 65.86 66.49 67.12 67.31 67.44 67.81 68.08 68.18 67.99 67.70 67.68 66.85 65.98
65.01 65.63 65.36 64.20 64.42 64.12 63.94 62.10 61.19 61.13 59.41 60.62 62.84 64.19 64.98 65.60 65.25 67.26 66.42 66.45 66.37 65.25 65.10 64.86 64.99 65.57 66.14 66.36 66.58 66.58 66.63 67.03 67.00 67.13 67.24 67.21 67.17 67.03
65.94 65.21 65.21 65.17 63.75 63.99 64.02 62.57 61.91 61.20 60.68 62.49 62.02 63.48 63.57 65.41 65.36 65.91 66.30 66.78 66.31 64.02 64.46 64.29 64.00 64.44 64.91 65.08 64.97 64.84 64.60 64.80 65.24 65.70 66.21 66.63 66.89 66.99
66.12 65.59 65.21 64.42 64.62 64.86 63.76 64.00 63.73 63.83 62.94 63.38 63.26 62.39 63.64 62.92 63.82 63.94 64.67 65.41 65.88 65.04 64.18 63.60 63.16 63.15 62.75 62.47 61.79 61.09 60.72 61.30 61.86 62.54 63.31 64.26 65.17 66.04
66.06 66.09 66.15 65.81 65.35 64.61 64.14 63.39 63.67 64.48 64.49 62.94 63.33 62.75 64.14 64.37 63.83 62.17 64.83 64.86 63.78 64.34 62.90 62.56 61.88 61.51 60.53 59.40 58.62 57.89 57.12 57.31 57.65 58.01 58.90 59.93 61.12 62.73
66.88 66.15 66.18 66.04 65.78 65.37 64.74 64.75 64.72 65.02 64.65 64.43 63.88 64.00 63.54 64.24 63.23 60.25 61.27 61.89 61.40 62.74 64.17 62.54 62.32 61.46 61.01 59.23 58.98 59.47 57.66 56.36 55.70 55.96 56.12 56.95 58.09 59.48
67.42 67.19 66.61 65.95 65.87 65.25 65.03 65.12 65.05 64.80 64.30 63.61 62.58 62.03 61.62 61.28 60.49 61.27 59.16 60.35 61.82 62.88 62.84 62.51 62.41 62.18 62.48 60.20 60.51 60.77 59.04 57.55 56.28 55.62 55.37 55.03 55.15 56.12
66.34 66.79 67.38 66.75 66.13 64.00 63.74 63.98 65.28 64.78 64.38 63.57 62.70 62.05 63.01 62.43 62.03 61.56 59.72 60.66 58.31 62.44 61.14 61.31 61.52 61.64 62.53 61.79 60.09 59.21 58.64 57.97 57.27 56.61 55.78 54.89 54.84 55.43
66.99 66.89 66.39 67.42 66.31 67.05 63.83 63.20 63.15 63.03 63.87 64.75 63.20 62.64 63.56 63.93 63.29 61.33 60.69 60.21 59.58 61.99 60.99 59.59 60.76 60.10 61.71 60.87 58.75 58.62 58.23 57.50 56.89 56.36 55.58 54.54 54.19 53.68
67.42 67.19 67.52 67.26 66.35 66.41 66.97 65.66 65.37 65.79 65.19 65.62 65.41 65.67 65.10 64.63 64.22 63.25 61.67 60.97 60.64 60.95 60.46 57.42 59.94 58.62 60.00 60.30 58.64 58.58 57.72 56.79 56.36 55.48 54.48 53.04 51.43 50.93
67.20 67.46 66.86 66.42 63.13 61.36 65.19 65.04 64.82 64.06 61.93 60.41 60.77 59.88 59.48 59.46 61.71 61.81 60.25 58.92 58.39 58.24 58.32 57.54 58.01 57.06 57.94 58.15 58.92 57.31 55.67 54.29 53.52 53.62 53.48 52.77 51.10 50.38
67.47 66.88 62.70 65.86 58.72 58.36 65.97 64.45 63.02 62.92 63.91 63.26 64.46 61.53 60.56 61.43 59.60 62.26 61.15 58.51 57.21 55.70 57.75 55.86 56.17 55.73 51.82 55.87 54.88 56.23 56.55 53.48 51.14 50.92 51.74 51.91 50.80 56.78
66.09 66.00 66.27 59.10 55.44 54.66 59.05 65.24 63.99 63.65 61.50 61.97 61.90 61.53 59.75 58.66 58.15 59.22 60.44 58.97 56.98 55.67 57.92 57.41 55.65 54.45 52.62 51.54 53.20 55.05 56.00 55.80 56.87 56.84 52.65 50.55 49.81 51.60
66.16 66.98 65.39 55.64 53.20 53.09 56.70 56.28 54.53 58.92 61.47 61.68 60.03 59.22 57.38 56.90 57.83 57.35 58.39 58.92 59.29 57.99 58.01 58.14 54.51 53.42 52.09 50.00 48.81 53.33 54.83 55.35 56.33 56.54 57.08 53.45 50.86 50.48
66.37 63.01 56.56 51.32 50.46 52.30 54.58 53.99 54.71 62.15 61.05 59.46 58.85 58.01 56.51 57.66 57.41 56.02 54.96 55.26 54.80 54.48 54.12 54.49 53.35 52.99 51.87 50.99 48.59 50.11 50.72 53.09 55.66 55.94 54.86 53.81 53.46 54.32
58.78 58.71 57.63 57.05 57.07 57.74 56.40 55.82 60.26 60.93 59.82 59.10 58.00 57.02 56.45 56.31 55.53 53.78 53.59 51.60 51.01 51.56 53.54 52.17 51.95 51.90 49.80 50.23 49.98 49.47 51.28 51.32 54.57 53.35 52.90 52.71 53.32 53.69
58.36 59.19 59.63 59.25 58.47 57.99 58.04 58.74 58.76 58.86 58.05 56.81 56.02 55.41 55.77 55.43 54.57 52.50 51.60 50.20 49.26 49.12 48.80 50.67 51.68 51.44 50.55 50.44 48.96 50.67 50.91 52.68 52.46 51.43 51.25 49.84 51.04 51.70
59.47 59.95 60.09 59.34 59.04 57.87 57.66 56.72 56.77 56.57 56.97 56.09 55.84 55.56 55.39 55.38 53.67 50.45 49.52 49.08 48.20 48.00 47.42 48.13 48.00 48.94 49.98 51.46 51.38 50.14 52.72 52.12 50.57 50.61 50.21 47.70 48.47 50.33
60.97 60.55 60.50 59.53 59.27 58.15 57.21 56.48 56.24 56.49 56.44 55.58 55.44 55.58 55.47 53.64 50.40 49.24 48.65 47.69 46.99 47.46 47.80 47.57 47.38 47.63 45.29 44.07 49.35 52.34 52.84 50.48 48.37 47.87 48.83 48.13 46.76 47.44
61.08 60.69 60.32 59.53 58.74 57.76 56.87 56.55 56.84 56.37 55.55 55.74 55.37 55.24 52.87 50.08 48.45 48.35 47.11 46.70 46.95 47.20 47.30 48.25 47.16 46.93 45.95 46.34 47.59 51.61 48.21 48.79 46.75 46.91 47.35 48.32 48.96 49.07
58.90 59.70 60.43 59.22 58.28 57.79 57.35 56.79 56.56 55.97 54.68 53.62 52.45 50.03 48.57 48.76 48.47 47.88 47.02 43.87 44.83 46.59 46.47 47.32 48.08 46.44 48.29 49.62 47.92 48.26 49.49 46.49 47.28 46.88 46.91 45.41 44.02 43.94
58.21 58.29 57.77 57.55 57.08 56.00 54.29 53.49 52.12 50.30 50.00 49.91 49.34 48.47 48.73 48.43 47.79 47.13 47.17 46.91 47.20 46.98 46.68 46.98 47.86 48.82 51.33 48.88 46.98 46.86 45.83 46.47 48.33 48.21 48.09 47.50 44.86 40.54
57.06 56.29 55.02 54.44 54.19 53.23 52.60 51.89 51.40 50.70 50.16 50.02 49.18 48.31 47.95 47.11 47.18 47.61 47.00 46.89 46.95 46.56 45.82 46.48 47.55 47.88 47.61 47.44 45.33 44.80 44.29 44.20 44.60 45.28 47.04 48.64 48.02 47.31

GFSNE_sfc_wetblb_033.txt.gz
Wetbulb
71.38 71.43 70.32 69.86 69.49 68.63 67.83 67.65 65.31 62.02 62.82 66.71 66.31 69.64 70.47 70.63 70.11 70.26 70.86 68.98 67.12 66.75 66.09 65.66 65.72 66.29 66.79 67.31 67.61 67.84 68.35 68.30 68.29 68.32 68.34 68.15 67.90 67.82
70.64 71.03 70.88 69.96 69.82 69.44 68.79 67.93 67.08 65.40 62.65 66.49 66.72 69.43 70.54 69.80 70.01 70.40 70.30 68.20 66.92 66.51 65.88 65.30 65.37 65.94 66.16 66.55 66.76 66.98 67.07 67.11 66.84 67.24 67.38 67.49 67.67 67.42
71.12 70.75 70.74 71.53 69.30 69.17 68.94 68.52 67.39 66.49 64.32 66.30 67.45 69.41 68.65 69.39 69.65 70.95 69.88 70.23 69.38 65.57 65.01 64.57 64.17 64.68 65.01 65.43 65.48 65.23 64.65 64.35 64.42 64.89 65.15 65.59 65.90 66.70
71.05 70.76 70.12 69.55 70.26 70.19 68.78 69.25 68.54 68.50 66.37 66.81 68.34 67.63 68.05 69.81 69.42 69.49 68.81 68.31 68.31 66.86 64.94 64.44 63.84 63.40 63.51 62.90 62.27 61.66 61.16 60.96 61.24 61.50 62.15 62.74 63.36 64.16
71.65 70.93 70.59 70.16 69.16 69.03 68.76 68.34 68.09 68.53 68.31 66.58 66.05 67.69 68.03 68.60 68.44 68.98 68.71 68.58 67.60 66.26 63.27 63.16 63.01 62.72 61.61 60.55 59.73 58.76 57.90 57.77 58.03 58.64 59.00 59.82 60.57 61.59
72.32 71.52 71.21 70.64 70.00 69.85 68.89 69.26 69.10 68.15 68.16 66.89 66.36 66.66 67.46 68.44 67.40 65.59 65.16 65.96 66.49 64.79 64.87 63.63 63.91 63.87 62.42 60.55 59.78 59.39 57.51 56.57 56.31 56.33 56.60 57.24 58.42 59.29
72.41 71.82 71.63 71.05 68.36 69.24 69.74 70.07 69.85 68.29 67.45 66.73 66.06 66.30 65.90 65.74 65.10 65.10 64.88 65.51 65.83 65.75 65.50 66.47 66.34 65.70 65.44 63.08 63.53 62.39 59.87 58.29 56.81 55.99 55.58 55.58 55.56 55.98
72.56 72.17 72.51 68.92 67.84 65.12 65.16 66.51 69.44 68.88 68.22 66.89 66.22 65.50 66.82 66.53 65.78 65.47 64.55 62.07 62.21 67.94 65.66 64.60 66.55 65.15 65.53 65.63 62.64 60.47 59.05 58.32 57.59 57.02 56.06 55.37 54.95 55.07
73.77 72.80 71.66 71.05 68.53 69.92 64.35 63.69 64.24 64.52 66.40 69.68 67.73 67.35 67.90 67.77 68.11 66.28 65.30 65.03 64.20 67.43 65.37 62.81 65.19 63.74 64.47 63.86 60.51 59.52 58.45 57.72 57.20 56.76 56.37 55.45 54.72 53.49
73.53 73.45 72.73 71.98 70.76 70.61 70.66 69.09 68.72 68.88 68.10 68.61 69.84 70.31 69.71 69.46 68.35 67.16 67.28 66.41 66.00 65.68 66.25 60.77 62.68 61.67 62.31 62.27 60.10 59.63 58.33 56.72 56.02 55.46 54.97 53.83 52.43 51.05
73.24 72.96 72.62 72.28 67.19 62.75 69.86 69.66 69.46 69.45 64.17 62.40 63.12 61.90 60.92 61.77 64.67 66.74 65.57 63.10 61.32 61.92 64.21 60.95 60.10 59.54 59.70 59.69 59.83 58.38 56.29 54.35 53.10 52.88 53.15 52.69 50.80 50.18
73.31 73.11 63.97 70.47 61.33 58.98 69.72 70.07 68.71 68.84 68.68 67.34 66.83 62.90 62.48 63.38 60.13 67.02 66.21 61.82 60.05 58.92 63.17 58.30 58.38 58.22 55.12 56.88 57.72 57.77 57.36 54.35 52.66 52.03 52.25 51.83 50.41 59.11
71.95 71.27 71.96 59.81 56.28 56.00 60.76 70.44 69.02 69.01 66.53 68.28 67.65 66.88 66.44 65.78 65.59 65.70 66.28 62.97 60.11 59.42 61.30 60.05 57.66 56.82 54.69 53.64 55.31 56.21 56.18 56.22 57.00 56.69 52.05 51.14 50.22 52.09
71.54 71.74 69.68 56.20 54.73 53.93 58.28 59.85 56.34 62.50 67.75 66.43 65.55 64.58 64.57 64.39 63.99 63.36 64.15 63.96 63.24 62.55 62.61 61.29 56.55 54.91 53.31 51.97 51.33 54.07 55.00 56.08 56.56 56.33 57.33 54.66 51.48 50.98
72.36 66.57 59.20 53.36 53.54 55.33 56.86 55.23 56.44 67.12 66.11 64.80 64.21 64.39 64.99 64.90 63.90 62.54 62.38 62.80 62.56 61.90 59.83 60.53 57.65 56.28 54.20 51.94 51.14 52.26 52.47 53.79 55.38 56.59 57.34 56.19 55.00 55.06
60.39 61.07 59.68 59.12 59.87 61.55 59.47 57.15 66.21 67.31 65.94 65.26 65.00 64.90 63.86 61.69 61.00 61.19 59.56 59.10 58.32 58.54 59.74 58.92 58.07 56.77 52.99 52.53 52.90 52.19 52.96 51.15 55.05 56.36 55.52 54.45 54.06 54.18
61.35 62.23 61.93 61.93 62.19 62.19 63.95 62.36 64.80 65.63 64.77 65.53 64.19 62.68 61.57 60.61 60.33 60.68 60.16 58.87 56.97 56.54 55.45 55.60 57.44 57.45 55.52 55.28 52.07 52.22 51.92 53.13 55.28 54.89 53.44 51.28 52.37 54.12
61.87 61.17 60.91 61.63 62.22 62.63 62.34 62.59 63.15 63.22 65.03 64.09 63.40 62.39 60.80 59.92 60.35 59.50 58.98 57.53 56.36 55.39 53.53 52.80 52.90 52.44 53.01 55.85 55.79 51.94 52.27 52.47 53.73 53.27 52.02 49.75 50.97 53.81
62.35 62.07 61.70 62.17 62.39 61.71 61.38 61.67 62.31 63.65 64.39 62.90 62.39 61.38 60.50 60.75 59.08 58.62 56.84 55.68 54.70 53.55 52.47 52.43 52.14 51.20 48.97 47.51 52.54 52.82 52.52 52.26 51.69 49.69 49.84 51.05 50.70 52.72
62.62 62.25 62.32 62.79 62.96 62.43 62.56 62.29 62.92 62.35 62.15 61.81 61.54 61.37 61.08 60.41 58.73 57.34 55.88 54.78 53.27 52.18 51.22 52.13 52.22 51.69 49.82 48.82 49.34 52.58 48.84 52.74 49.97 47.91 48.49 51.27 52.70 51.37
62.77 63.28 63.56 64.04 64.33 64.39 63.25 63.21 62.75 61.68 61.32 61.30 61.19 61.04 60.51 59.08 57.32 56.06 54.47 47.94 49.09 51.35 50.20 50.94 52.67 46.95 52.48 54.54 50.88 50.07 52.03 48.11 48.89 48.75 49.06 49.20 48.63 46.60
63.19 64.72 64.48 65.18 65.94 64.91 63.08 62.74 62.14 60.40 60.69 60.66 60.33 59.41 58.31 57.26 55.56 54.00 52.57 51.57 51.02 50.81 51.03 52.13 53.69 53.14 52.84 50.59 48.86 49.76 49.64 50.54 49.92 49.22 49.30 48.75 47.29 42.25
64.56 65.15 65.36 64.92 64.16 62.52 61.81 60.83 60.27 60.06 59.26 58.60 57.58 56.95 56.41 54.82 54.43 53.03 52.26 51.74 51.30 50.72 50.95 50.54 51.37 52.14 51.04 50.40 48.22 48.99 49.09 48.36 47.63 47.30 49.77 49.31 49.00 48.51

GFSNE_sfc_wetblb_036.txt.gz
Wetbulb
74.52 73.53 71.80 71.33 71.16 70.49 69.73 68.67 66.55 63.80 64.77 68.51 66.96 71.37 71.03 71.30 72.67 71.90 72.21 69.57 68.11 67.38 66.77 66.68 66.79 66.73 67.26 67.75 67.91 68.05 68.24 68.69 68.67 68.52 68.15 67.96 68.30 68.76
73.54 73.20 72.84 71.33 71.56 71.16 70.27 69.65 68.61 66.53 64.07 68.50 68.27 70.96 71.51 71.83 71.13 71.67 72.02 69.58 68.38 67.10 66.48 66.11 66.07 66.17 66.22 66.59 66.89 67.07 67.29 67.32 67.14 66.68 66.82 66.91 66.83 67.10
74.18 73.06 73.28 73.93 70.64 70.51 70.62 70.06 69.18 68.45 65.92 67.24 69.37 71.74 71.67 71.12 70.86 71.40 71.76 71.14 70.43 66.78 66.66 65.80 65.02 64.87 65.50 65.80 65.88 66.00 65.67 65.12 64.46 64.56 65.01 65.27 65.65 65.77
74.49 73.49 72.69 72.16 72.62 73.27 70.75 73.46 71.23 71.91 67.92 68.64 70.73 69.40 70.83 71.90 72.00 71.77 70.29 69.97 69.99 67.71 66.26 65.55 64.91 64.49 64.65 64.67 64.47 63.99 63.03 61.99 61.51 61.66 62.23 62.93 63.39 63.91
75.12 74.10 73.21 72.39 72.30 71.24 71.18 70.65 70.20 69.97 70.09 68.09 67.60 69.68 69.20 70.42 70.60 71.38 71.03 70.92 69.74 66.64 64.09 64.37 63.79 63.72 63.32 62.36 61.69 60.34 59.24 58.78 59.03 59.21 59.57 60.28 61.28 61.96
75.99 75.14 74.18 72.56 72.54 72.32 70.88 71.36 71.42 69.89 70.35 68.47 67.80 67.75 68.62 70.70 69.73 67.78 67.47 69.09 68.02 68.65 67.16 64.16 65.40 65.17 63.87 61.93 60.76 60.65 58.27 57.08 56.71 57.05 57.64 57.93 58.80 59.94
76.18 75.73 74.89 73.37 69.57 70.58 70.89 72.60 73.17 70.14 68.57 68.24 67.73 67.60 67.55 67.41 67.71 67.92 66.77 67.00 68.81 68.98 67.57 67.98 67.26 67.95 67.33 62.26 64.23 63.27 61.04 59.36 57.81 56.74 56.21 56.21 56.23 56.93
76.72 76.18 76.25 71.49 70.10 66.29 66.06 66.90 71.58 72.23 71.47 68.19 67.78 68.03 70.33 68.92 68.41 67.43 66.05 65.81 63.30 71.84 68.19 66.72 67.32 66.53 67.25 67.39 62.05 60.80 59.62 58.71 58.00 57.18 56.61 56.04 55.92 56.27
77.81 76.62 75.11 74.59 71.63 73.14 66.35 65.04 65.56 65.63 67.23 72.24 70.37 70.37 70.33 70.44 70.57 69.10 68.30 66.77 65.62 68.79 67.87 64.97 66.60 65.44 66.39 65.83 61.11 60.14 59.41 58.35 57.66 57.08 56.47 55.68 55.23 54.70
78.09 77.43 77.11 76.75 75.29 73.52 73.09 70.85 69.76 71.30 70.91 70.37 71.60 71.35 72.95 72.02 71.04 69.92 69.45 68.90 68.27 67.87 68.80 63.19 65.15 62.84 64.45 64.28 61.06 59.81 58.63 57.30 56.32 55.26 54.95 54.03 52.70 51.63
78.51 77.89 77.99 77.33 70.03 64.25 73.04 72.51 71.10 71.10 66.43 63.10 63.98 63.87 63.85 64.24 67.15 68.51 66.07 65.91 63.65 64.19 66.85 64.00 62.63 61.23 62.28 62.01 62.00 59.90 56.11 54.79 53.75 54.01 54.09 53.15 51.17 50.50
77.88 78.61 66.46 74.18 63.41 60.73 72.31 73.56 71.03 71.40 71.39 70.23 69.41 65.77 64.89 65.73 61.64 68.64 67.46 64.32 63.27 62.05 65.85 62.26 60.27 60.33 58.21 60.92 59.76 60.02 59.18 55.40 53.10 52.63 52.98 52.51 51.21 57.75
75.05 75.83 76.18 62.01 57.86 57.24 62.90 72.11 70.25 71.66 69.22 70.86 68.69 69.09 69.36 68.95 68.00 67.77 68.92 66.83 63.65 61.65 63.85 63.39 60.32 59.77 58.37 57.29 57.95 57.68 57.69 57.21 57.75 57.32 52.44 50.64 50.01 53.04
75.29 75.65 75.24 58.10 56.18 54.92 59.93 62.05 58.29 62.84 69.78 67.50 67.65 67.20 67.34 67.35 67.51 68.10 69.05 68.14 65.66 65.25 65.68 64.47 59.99 59.25 57.34 55.83 53.78 55.87 56.38 57.26 57.31 56.90 57.38 54.98 51.08 51.37
76.04 71.63 61.73 53.93 54.05 55.09 57.17 57.79 58.86 67.56 68.28 66.91 65.45 67.17 67.13 67.78 69.46 67.74 67.17 67.35 66.65 66.29 64.47 64.79 61.64 60.60 57.42 53.90 52.86 54.02 54.11 55.99 56.74 56.05 57.01 57.87 58.06 57.60
63.22 66.33 61.62 60.40 59.74 60.70 59.68 60.59 66.82 66.77 67.86 67.45 66.15 67.47 68.05 66.90 65.71 65.33 63.25 62.98 61.85 61.47 64.12 63.41 62.08 59.87 55.43 54.54 54.21 53.51 54.75 53.12 55.27 55.93 57.29 57.64 57.26 56.24
60.73 62.29 61.79 61.99 61.93 61.79 63.24 63.88 66.95 67.44 67.06 67.29 66.72 66.71 65.79 64.84 64.39 64.21 62.89 62.42 60.82 60.10 60.22 60.94 61.35 60.78 58.15 57.44 53.65 54.59 54.53 54.27 54.99 55.87 56.60 54.37 54.60 54.60
62.79 62.47 62.27 62.95 62.92 62.91 62.36 62.31 64.94 65.61 67.03 67.13 66.66 66.08 65.00 63.68 63.21 62.88 62.83 62.15 60.58 60.14 59.06 58.29 56.45 54.67 54.73 58.61 58.28 54.42 54.63 54.07 54.76 56.03 55.93 51.87 51.07 53.98
62.39 61.47 62.06 62.41 63.11 63.84 64.30 63.22 62.65 65.95 68.48 67.25 66.02 65.60 65.11 64.23 61.75 62.26 62.31 61.54 60.07 59.09 58.08 56.51 54.67 53.21 51.31 50.27 54.72 55.05 53.23 53.86 53.98 53.00 52.71 51.39 50.41 51.57
64.00 63.57 63.20 63.66 64.03 63.92 64.41 63.88 65.15 66.28 66.68 66.11 65.56 65.15 64.30 62.97 62.18 62.19 61.44 60.01 58.94 57.56 55.61 55.11 54.21 54.16 52.73 51.42 51.15 53.53 49.12 55.13 53.08 51.21 50.53 51.20 51.64 51.67
66.78 66.64 65.75 65.14 64.59 64.78 65.11 66.05 66.67 66.21 65.95 65.33 64.65 63.66 63.55 63.07 62.09 61.24 60.25 51.50 52.92 55.63 53.66 53.38 55.93 51.84 54.88 54.36 52.89 53.47 54.67 48.88 51.45 52.08 51.02 48.72 48.88 50.78
66.42 66.11 66.19 66.12 66.27 65.54 66.27 66.08 65.60 64.46 64.50 64.01 63.10 63.52 63.26 62.39 60.90 60.30 58.88 56.49 54.40 53.74 53.84 54.44 56.08 55.27 54.21 52.48 51.52 52.90 52.67 54.27 52.66 50.37 49.33 48.68 49.32 45.88
66.16 66.65 67.49 67.82 66.47 67.45 66.79 65.72 64.92 64.29 64.33 64.10 63.44 62.82 62.43 60.73 60.37 59.03 57.18 55.41 54.51 53.87 53.56 53.18 53.53 54.36 53.58 53.01 51.31 51.96 53.29 52.59 51.29 50.31 50.97 50.93 50.48 49.93

GFSNE_sfc_wetblb_042.txt.gz
Wetbulb
75.84 76.43 74.36 72.90 72.79 71.72 71.01 70.31 68.32 64.48 65.45 70.15 67.73 70.88 71.62 70.78 70.34 68.30 68.52 67.52 67.61 66.85 66.69 66.75 66.92 66.80 67.36 67.76 68.12 68.25 68.35 68.56 68.78 68.66 68.34 67.33 66.75 66.73
75.62 75.35 74.66 71.67 71.97 72.57 71.93 71.07 70.09 68.04 65.12 68.81 69.60 69.81 70.10 71.63 71.72 71.43 71.09 69.20 67.29 67.38 66.47 65.98 66.33 67.02 67.10 67.52 67.57 67.46 67.55 67.74 67.58 67.28 66.10 65.55 65.86 65.68
76.13 75.34 74.36 73.28 72.19 72.69 71.88 71.79 70.72 69.92 66.65 67.89 71.56 72.36 71.55 69.70 69.71 70.79 71.13 70.84 68.71 66.73 66.84 66.87 66.73 66.38 66.52 66.47 66.43 66.58 66.55 66.48 65.81 65.07 64.24 64.16 64.41 64.71
75.05 75.11 74.70 73.52 73.16 73.66 73.97 71.30 70.75 71.49 69.44 68.58 70.65 70.91 71.56 71.43 71.60 71.78 70.64 70.49 70.94 68.29 67.21 66.53 66.11 65.34 65.31 65.29 65.15 64.84 64.92 64.41 62.94 62.08 61.92 62.31 62.90 63.24
76.25 74.66 74.27 73.62 72.49 70.83 71.95 71.57 71.35 72.00 72.58 68.74 68.83 71.51 71.58 71.85 70.64 71.14 71.95 70.69 71.33 67.73 65.30 65.37 64.78 64.43 64.21 63.29 63.13 62.72 61.95 61.51 61.00 60.31 59.96 60.20 61.06 61.89
77.10 76.28 75.10 73.89 72.42 72.74 71.21 70.69 71.18 70.92 69.84 70.05 68.73 68.20 70.47 70.72 70.30 68.47 68.83 69.92 69.00 68.10 67.35 65.97 65.12 64.52 63.89 62.08 61.89 61.60 59.30 58.40 57.75 57.52 57.96 58.53 59.00 59.54
76.58 77.00 76.24 74.72 71.62 71.45 72.45 72.10 70.00 70.13 69.91 67.61 67.52 68.22 68.08 69.24 67.04 68.31 67.46 68.04 68.73 69.23 67.76 67.86 67.48 65.19 64.73 63.32 64.41 63.93 62.39 59.99 58.40 57.87 57.07 56.40 56.37 57.08
76.14 76.46 76.56 72.97 71.53 68.40 68.31 69.22 71.11 69.17 67.89 67.19 67.24 66.32 67.27 69.07 69.75 67.74 66.78 66.50 63.72 69.16 67.30 67.07 68.63 67.20 67.23 66.41 64.95 65.54 64.25 61.34 59.24 57.63 56.76 56.21 55.78 55.76
76.90 76.44 76.32 76.53 72.82 73.35 67.53 66.78 66.53 66.44 68.08 69.39 67.57 68.96 70.35 70.77 70.74 69.67 68.83 67.46 65.58 68.08 67.02 64.38 66.87 65.75 66.06 63.00 62.42 62.34 63.33 59.83 58.19 57.23 56.50 55.36 54.87 54.54
76.93 76.91 76.39 76.05 75.51 74.20 72.62 70.10 70.06 69.15 67.76 69.79 70.75 69.98 71.62 72.87 71.04 71.24 70.13 69.01 68.50 68.14 68.35 62.63 65.82 64.79 64.85 61.49 61.45 62.87 60.03 59.26 57.75 55.98 55.19 54.30 52.56 51.74
76.74 76.92 76.80 76.20 71.87 65.81 73.31 70.96 69.45 69.49 65.97 64.28 65.80 66.78 66.35 65.84 70.01 69.78 67.72 65.79 64.36 64.67 68.23 64.69 65.10 64.20 61.68 61.92 60.61 60.63 58.32 57.68 55.65 55.15 54.87 54.04 52.27 51.38
75.48 76.20 67.89 74.15 66.39 61.68 72.44 72.49 70.49 69.62 69.78 68.83 67.26 64.72 64.96 65.87 64.63 70.14 68.31 65.12 63.95 63.41 66.72 64.43 63.45 62.61 57.06 61.21 61.63 57.55 57.28 55.64 53.62 52.74 53.09 52.72 51.31 50.80
74.48 74.52 75.32 63.24 60.91 58.97 62.52 73.15 71.82 71.79 68.67 69.96 68.43 67.88 67.61 68.29 66.47 67.88 69.19 67.43 64.72 63.41 66.02 64.85 63.11 61.12 58.55 57.53 59.46 60.02 59.85 56.58 56.43 54.79 51.56 50.33 50.29 51.16
74.94 74.99 74.53 62.19 58.13 57.61 59.84 65.91 60.47 65.82 72.17 69.84 68.62 67.30 66.46 66.62 67.70 67.23 68.17 68.19 66.86 66.64 62.74 64.45 61.82 59.74 57.81 56.26 55.50 57.61 56.57 56.64 56.40 55.47 56.45 54.17 52.01 50.32
76.61 72.72 61.03 55.65 55.85 58.80 58.81 61.35 60.03 71.22 71.59 69.09 68.36 67.36 67.28 67.50 67.97 68.05 67.23 66.76 66.49 66.78 65.20 65.74 62.63 61.50 59.36 57.01 55.25 54.96 52.42 53.93 55.75 55.30 54.88 54.95 53.34 53.90
68.31 71.53 68.98 65.35 62.48 64.34 64.89 62.15 70.31 72.44 71.55 69.69 68.90 68.56 68.36 67.79 66.98 67.14 65.90 65.84 64.90 64.63 65.73 66.38 64.32 62.11 58.73 57.70 56.13 53.64 53.84 51.00 54.70 55.47 54.59 53.57 54.11 53.50
70.00 74.27 73.86 73.29 72.50 70.45 69.16 67.50 70.13 71.26 70.07 70.18 69.33 67.05 66.87 66.66 65.98 66.42 65.38 64.64 62.99 61.95 61.70 63.89 64.52 62.98 60.52 57.49 54.49 53.67 52.87 54.60 56.04 55.09 52.67 51.15 52.52 52.60
67.96 72.14 73.07 73.11 70.65 68.98 67.16 67.70 69.14 69.21 70.16 69.82 68.20 67.16 65.78 65.10 64.90 64.86 64.44 63.10 61.56 61.04 60.24 61.73 60.89 59.43 58.26 58.24 58.72 52.95 54.24 54.71 53.65 53.84 53.43 50.66 48.54 50.82
72.11 70.28 70.74 69.42 67.57 67.84 67.12 67.86 68.13 69.44 70.02 68.78 67.54 65.58 64.75 64.84 63.20 63.10 62.72 62.27 60.53 60.42 60.42 61.15 59.53 57.15 54.66 51.50 54.68 56.36 54.00 52.63 52.58 52.36 52.33 50.12 48.25 48.80
69.43 68.31 68.15 68.72 68.27 67.02 67.12 67.03 68.13 69.19 68.87 68.06 66.46 64.96 65.02 64.34 62.89 62.40 61.78 60.98 60.46 60.43 60.63 60.23 59.04 56.62 52.80 50.84 52.17 53.88 51.33 52.82 53.07 51.50 50.10 50.53 51.02 52.47
63.24 63.02 63.29 63.70 64.17 64.57 64.73 64.57 64.85 64.57 64.96 65.52 64.94 64.69 64.18 63.30 62.25 62.50 61.58 57.00 58.28 60.25 58.44 57.70 57.60 57.51 57.23 54.24 50.27 49.73 53.34 49.41 53.97 51.49 50.98 48.49 46.39 46.14
62.53 61.92 63.65 64.81 64.60 65.03 63.44 63.60 64.21 64.03 64.69 64.23 64.76 64.88 64.15 63.40 62.71 61.84 61.23 60.22 59.62 59.24 58.24 54.75 55.28 55.41 54.18 52.30 49.75 50.53 53.31 52.99 50.80 50.51 51.48 51.20 46.46 41.90
65.76 66.07 65.98 66.20 65.67 64.67 64.10 64.10 65.48 64.40 64.90 65.02 64.72 64.34 64.07 62.87 62.08 61.44 61.26 59.15 58.19 57.82 56.95 53.60 54.60 54.73 53.22 52.63 51.67 51.61 51.63 52.85 52.99 51.35 52.25 51.32 51.73 49.57

GFSNE_sfc_wetblb_045.txt.gz
Wetbulb
71.80 72.03 69.87 68.54 68.33 65.91 64.16 64.19 62.13 58.43 60.15 64.73 63.29 66.59 66.39 68.31 67.20 65.69 64.03 66.90 66.98 66.09 65.85 65.83 66.22 66.80 67.11 67.18 67.32 67.76 68.15 68.08 68.16 68.24 67.89 66.22 65.02 64.99
72.56 72.07 71.36 69.45 67.66 67.53 65.77 64.22 63.95 62.01 58.93 64.20 64.57 65.87 67.33 67.69 68.28 64.24 64.25 66.54 66.86 66.10 65.45 65.09 65.63 66.10 66.44 66.73 67.09 67.23 67.34 67.28 67.50 66.83 65.52 64.92 64.64 64.12
72.58 72.25 71.43 70.43 66.81 66.16 66.54 65.98 63.96 63.51 60.31 61.96 65.10 65.63 65.87 66.64 67.05 66.33 68.45 67.01 65.06 65.76 65.54 65.47 65.12 65.50 65.99 66.37 66.40 66.30 66.30 66.47 66.08 64.70 63.95 63.36 63.40 63.68
72.77 71.45 71.82 72.13 68.14 67.37 68.85 65.01 65.05 65.56 62.76 60.45 65.28 66.40 65.25 65.40 65.37 65.72 67.32 68.96 67.50 67.21 65.68 64.99 64.80 64.92 64.72 64.79 64.48 64.44 64.26 64.47 63.78 62.59 61.95 62.12 62.45 62.83
73.44 72.69 71.83 71.50 69.38 68.60 67.61 67.51 66.89 66.03 66.56 63.47 64.24 66.24 66.90 66.91 66.72 67.30 66.44 65.89 67.87 67.69 65.34 64.82 64.74 64.26 63.49 62.67 62.53 62.09 61.86 61.66 60.97 60.20 59.77 59.86 60.68 61.60
74.17 73.79 72.85 72.14 70.77 69.35 67.20 67.12 66.97 66.07 65.15 64.88 63.35 63.74 65.92 67.52 66.09 65.33 65.23 67.35 66.15 67.77 66.71 65.52 64.73 64.70 63.64 61.95 61.71 61.23 59.49 58.63 58.11 57.58 57.35 57.75 58.79 59.21
73.13 74.71 74.31 73.11 70.99 69.94 69.97 67.85 66.87 66.14 65.45 64.56 64.03 63.62 63.06 65.27 66.12 65.45 64.94 65.41 66.32 65.98 62.78 63.20 62.85 62.94 63.29 63.09 63.64 63.79 61.73 60.16 57.98 56.81 56.45 56.06 55.74 56.27
74.09 73.15 74.72 72.30 70.97 67.84 68.27 68.40 68.98 66.38 65.29 66.35 64.87 64.67 65.38 64.51 65.82 65.84 65.62 63.36 62.07 66.28 64.00 63.28 64.69 63.82 63.38 62.95 63.78 63.15 60.95 60.52 59.49 57.70 56.49 55.24 54.82 54.85
74.99 74.87 73.60 75.02 71.81 72.48 67.42 67.04 66.99 66.85 66.50 66.40 66.19 65.39 65.35 66.36 66.78 65.19 65.37 63.84 62.73 64.19 63.80 62.09 63.94 62.61 64.30 64.17 62.52 61.69 60.73 61.47 59.43 57.69 56.19 55.11 54.28 53.37
75.34 75.32 74.75 74.34 74.10 73.37 72.26 69.96 69.77 69.33 68.47 67.71 66.85 67.34 67.41 67.66 68.51 67.90 66.20 65.09 65.36 65.92 64.82 60.89 63.17 62.62 62.91 60.14 62.46 61.63 60.66 59.24 58.57 57.49 55.55 53.94 52.17 50.99
75.20 75.45 75.41 74.94 70.94 65.76 72.90 71.25 69.86 69.67 66.46 63.98 65.17 64.51 64.52 66.15 68.34 68.16 65.32 63.59 61.98 63.69 66.07 63.32 63.14 62.41 61.61 59.30 58.90 61.16 58.80 57.27 57.86 56.28 55.21 53.65 51.62 50.15
74.97 75.02 67.38 73.07 66.32 62.44 72.20 72.38 70.31 70.16 69.88 67.65 65.92 64.26 65.08 66.36 65.91 68.74 66.61 63.61 62.15 61.76 64.87 64.07 62.93 62.26 58.08 58.05 57.25 57.93 56.44 55.14 54.11 53.35 52.88 52.51 50.82 48.53
74.23 74.06 74.59 63.37 60.84 59.46 62.04 73.63 72.04 71.86 69.25 68.94 68.10 67.55 66.47 66.72 67.12 68.19 67.85 66.36 63.48 62.12 64.57 64.71 62.34 60.65 55.38 54.07 55.83 55.31 54.01 53.59 52.90 51.75 50.78 49.58 49.62 49.74
74.83 75.18 74.24 61.16 58.46 58.57 59.88 65.45 62.42 63.68 72.10 68.95 68.31 67.03 65.98 65.92 66.54 68.02 68.33 67.81 67.34 65.27 64.25 64.58 61.56 61.60 54.90 53.54 53.08 53.62 52.43 51.95 51.89 50.03 51.25 51.60 50.82 49.75
76.39 73.24 65.92 60.05 56.13 58.50 58.78 60.96 60.36 69.07 72.08 70.85 68.48 68.27 67.30 67.62 67.88 66.52 67.28 67.62 66.25 65.74 65.51 62.32 61.54 58.05 55.76 53.30 52.52 51.49 49.85 48.70 50.05 50.05 50.31 49.48 48.80 49.41
67.51 71.19 68.80 66.36 64.90 64.96 62.73 61.10 64.67 70.25 72.04 71.84 71.25 70.65 69.57 67.55 66.44 66.76 65.52 65.63 64.84 64.74 64.53 63.99 61.33 58.94 55.95 54.78 52.97 50.69 49.95 46.52 47.94 49.17 49.44 48.85 49.16 48.53
67.75 71.13 72.54 72.61 71.71 71.82 66.79 66.78 65.63 66.74 69.53 71.31 71.38 71.02 69.11 67.09 66.42 66.71 66.08 65.09 63.79 63.32 63.04 63.05 61.81 59.59 56.73 54.36 50.84 50.36 48.46 47.47 49.15 51.18 47.83 46.03 47.57 47.59
63.51 68.70 70.37 71.66 72.40 72.53 72.20 71.89 67.28 66.24 68.09 69.78 70.59 71.18 69.42 67.12 66.51 66.10 66.11 64.43 63.44 62.80 62.29 62.18 60.55 57.38 55.55 55.17 54.69 49.15 48.27 48.36 49.61 49.59 47.80 45.94 44.12 46.27
67.39 68.27 69.17 70.05 71.07 70.03 70.19 69.63 68.79 69.01 68.95 68.97 69.92 70.03 70.01 68.45 65.97 66.17 64.40 63.93 63.16 62.67 61.99 61.46 59.28 56.27 51.73 49.93 52.12 54.25 48.98 48.87 47.42 46.56 47.59 45.16 43.97 44.69
64.43 63.91 64.11 65.96 67.39 67.43 67.55 67.86 68.00 68.13 68.41 67.41 65.94 65.37 65.06 64.38 64.19 63.93 63.57 62.99 62.49 60.92 59.82 60.44 58.37 56.64 54.49 52.57 48.61 49.25 49.97 47.97 47.02 47.22 45.66 45.37 46.08 50.57
62.88 62.92 63.13 63.15 63.71 64.22 63.59 64.51 64.81 64.67 64.45 63.77 62.63 62.71 63.26 63.17 61.29 62.34 62.72 58.26 59.29 59.93 58.37 58.24 58.90 57.51 52.36 48.83 45.48 44.85 48.24 49.36 50.06 47.52 45.58 43.93 41.80 41.19
59.33 59.62 60.60 62.16 62.44 62.21 62.32 61.78 62.59 61.88 62.38 61.00 61.06 62.39 62.86 63.19 62.79 62.45 61.79 60.20 59.72 58.83 57.56 54.80 55.74 52.79 49.02 46.75 44.68 44.37 47.65 48.05 48.84 51.14 50.53 48.26 41.79 37.45
60.84 61.44 61.52 61.49 61.09 61.39 62.32 61.15 61.89 61.85 62.11 62.87 63.77 63.29 62.98 62.30 62.68 61.90 60.79 60.20 59.98 57.39 52.58 50.42 50.22 49.44 48.29 47.34 46.84 45.59 46.44 47.22 45.97 45.12 45.61 50.08 50.52 49.74

GFSNE_sfc_wetblb_048.txt.gz
Wetbulb
69.79 70.38 67.92 66.51 66.96 65.52 62.28 62.40 60.25 57.86 58.76 62.50 62.54 65.12 66.24 65.31 64.80 66.15 64.07 67.50 67.37 66.47 65.62 65.71 66.31 66.93 67.17 67.58 67.41 67.27 67.57 68.13 67.89 67.94 67.69 66.26 64.42 64.54
71.31 70.18 69.76 69.05 67.26 66.38 64.30 61.63 61.82 59.71 57.44 61.42 63.80 64.45 65.95 67.38 66.77 65.88 63.46 66.31 66.92 66.08 65.27 64.88 65.03 65.76 66.06 66.41 66.38 66.75 66.90 67.33 66.87 67.06 66.18 64.77 64.61 63.66
72.25 71.03 70.13 69.52 68.63 65.91 65.11 63.89 61.74 61.22 58.97 59.57 63.01 63.85 64.06 64.79 65.17 65.21 63.28 62.67 62.96 65.61 65.26 64.52 64.06 64.50 65.16 65.44 65.29 65.73 66.27 66.07 66.03 65.88 64.84 63.77 63.21 63.32
72.76 71.63 70.98 71.39 68.82 66.94 65.00 64.66 63.61 62.32 60.37 58.63 60.56 64.97 63.82 64.66 64.80 64.76 64.10 65.47 64.99 65.81 65.04 64.24 63.72 63.43 63.33 63.39 63.83 63.95 63.76 64.14 64.14 63.65 63.03 62.05 62.25 62.51
73.11 72.14 71.91 71.42 70.57 69.23 65.78 65.90 65.27 64.01 63.11 60.36 60.25 64.05 64.05 64.27 63.28 63.98 64.09 65.12 66.58 67.59 64.73 63.94 63.61 63.06 62.58 62.19 61.72 61.04 60.67 60.86 60.75 60.58 60.49 60.30 60.74 61.56
73.34 73.11 72.73 71.55 71.51 70.11 67.76 66.58 65.53 65.64 63.78 63.37 61.07 63.93 64.20 65.64 64.12 63.49 63.41 64.66 64.46 67.63 67.19 65.37 64.84 64.49 63.74 61.75 61.40 61.09 58.93 57.93 57.55 57.47 57.26 57.28 58.52 59.35
72.73 73.50 73.37 72.55 70.75 70.16 70.44 68.69 65.66 65.08 63.91 63.24 62.38 61.63 62.51 64.29 64.24 63.59 63.81 64.90 65.88 65.20 64.10 62.86 63.22 63.58 63.79 63.30 64.32 63.81 60.37 58.80 57.20 56.28 55.51 55.56 55.72 55.98
72.76 72.23 73.19 71.73 70.55 68.03 67.38 68.05 68.27 66.55 65.19 65.12 65.07 63.96 64.33 64.33 65.18 65.48 64.56 61.94 61.59 65.62 63.87 64.35 62.70 61.86 63.04 62.80 63.54 62.41 60.62 59.41 58.09 56.67 55.75 55.32 54.46 54.49
73.56 73.26 72.89 73.50 71.16 72.52 67.36 66.30 66.41 65.51 66.82 66.27 65.02 65.56 64.81 65.71 64.50 64.56 64.95 64.02 63.86 63.98 66.40 64.58 63.40 62.77 64.58 65.09 62.75 61.46 60.21 59.09 58.38 57.27 56.64 55.19 53.91 53.04
74.31 74.31 73.83 73.70 72.81 72.85 72.85 70.51 69.27 69.81 67.86 67.39 67.23 66.36 67.20 67.56 66.69 66.57 66.06 65.81 63.84 64.06 64.51 62.46 62.44 63.16 63.47 63.28 62.45 61.82 60.00 58.69 58.24 56.90 55.79 53.80 52.17 50.61
74.55 74.49 74.58 74.27 70.23 65.22 72.39 72.13 71.55 70.84 67.75 63.92 65.16 64.33 62.57 62.88 65.16 66.40 63.47 62.28 61.96 62.17 64.32 62.02 62.05 62.48 62.14 60.56 60.88 61.64 59.22 57.57 56.76 56.23 55.49 53.47 51.36 49.37
74.80 74.98 67.36 71.97 65.31 62.36 70.51 72.41 71.54 71.96 71.50 70.77 66.41 65.65 63.28 64.15 63.26 67.27 66.77 63.92 63.57 61.52 64.66 62.94 62.00 62.08 59.95 60.48 60.55 59.01 59.21 55.82 54.38 54.09 53.89 52.84 50.70 48.22
73.83 74.08 74.86 63.21 60.84 59.37 61.37 73.34 72.37 72.89 71.43 71.26 71.06 69.07 68.49 68.29 66.88 67.89 68.97 67.50 64.97 63.34 64.81 65.08 62.53 61.34 60.39 57.10 57.35 56.38 57.74 53.87 53.84 52.61 50.98 50.09 48.67 49.22
74.45 75.00 74.31 62.21 58.02 58.14 60.01 64.11 62.68 63.41 73.33 73.28 71.42 70.37 69.34 68.25 67.60 68.26 69.02 68.89 68.35 66.91 65.72 66.57 63.23 61.76 58.93 54.54 54.51 53.73 53.67 53.34 52.20 51.10 50.02 49.77 49.10 49.13
75.83 72.64 65.22 60.10 57.18 58.59 57.92 60.41 59.92 69.34 71.86 72.33 72.22 71.96 70.35 71.00 69.68 67.99 69.04 69.17 68.41 67.92 67.07 65.78 64.17 63.58 61.02 56.64 54.73 51.77 51.71 49.83 49.72 49.32 49.11 48.92 47.68 47.80
66.45 71.23 68.66 65.12 62.30 66.12 64.51 61.45 63.91 68.28 70.09 71.12 71.75 72.99 73.63 71.19 68.78 67.59 66.75 67.43 66.23 65.78 66.16 66.04 63.74 63.22 60.44 57.04 55.55 52.33 50.92 48.53 47.65 48.10 48.02 46.68 47.70 47.30
67.78 70.07 70.93 71.94 72.37 72.57 72.21 68.04 66.36 66.07 66.39 68.56 70.05 71.01 71.24 71.55 69.35 68.08 66.84 66.23 65.32 64.97 63.01 63.58 63.64 61.96 59.59 56.00 53.09 53.17 49.12 46.97 46.71 48.29 46.32 45.24 45.95 46.37
64.82 66.92 68.46 69.35 69.98 71.42 72.43 72.64 68.80 66.88 67.88 67.72 68.46 69.37 69.57 70.23 69.98 68.96 66.97 65.66 64.87 65.04 63.57 63.02 60.86 57.28 56.12 55.90 56.27 50.99 47.98 47.13 48.54 48.76 45.51 44.85 43.59 44.15
65.55 65.60 66.43 66.97 68.03 68.83 70.43 71.18 70.64 68.46 67.97 67.42 67.70 68.31 68.65 68.89 67.40 68.19 67.51 65.75 65.12 65.55 64.16 61.91 59.17 57.00 53.69 51.75 54.10 52.63 48.51 47.68 47.26 45.85 46.03 43.72 43.01 42.99
63.01 61.95 63.19 64.27 65.85 66.36 66.23 66.27 67.31 67.56 67.40 66.86 64.10 63.74 63.94 63.48 62.90 63.24 62.63 61.74 61.58 61.77 61.02 60.86 59.37 58.02 55.96 53.13 49.77 51.60 49.38 47.17 46.02 45.56 45.15 43.29 45.64 50.11
62.12 60.78 60.95 60.75 60.43 60.33 60.38 61.00 61.79 63.62 64.34 63.80 62.64 61.47 62.66 60.14 61.46 61.04 59.70 56.50 58.59 60.56 59.49 59.31 59.88 57.04 54.39 52.92 47.34 47.53 49.61 48.93 49.23 47.40 44.09 43.00 41.07 40.56
57.16 57.44 57.64 58.14 58.18 58.75 59.31 59.80 61.25 62.27 62.31 63.10 61.29 61.39 61.72 61.66 60.65 61.24 61.86 60.70 60.24 60.06 59.61 58.49 56.34 54.45 49.83 49.45 46.13 45.25 47.10 47.88 48.96 50.56 50.16 48.23 42.26 38.64
58.58 58.98 59.09 59.53 60.04 60.14 60.00 61.27 61.61 61.25 60.96 61.18 60.63 62.63 63.06 62.69 62.25 61.04 61.09 59.77 58.48 56.88 56.88 55.18 54.58 51.70 48.23 48.77 46.62 44.74 45.93 45.94 45.65 45.93 46.00 49.64 49.40 48.73